Observation data for Sweetwater on 12/06/2019      Previous  Date       Current Mesonet Observations  Soil Data  Daily Summary Page  Observations in Plain Language
KSW1 060600Z 33010KT 13/03 A301 RMK A01 T01340025  RH  048%=      5-min Rain = 0
KSW1 060601Z 34010KT 13/03 A301 RMK A01 T01340026  RH  048%=      5-min Rain = 0
KSW1 060602Z 34010KT 13/03 A301 RMK A01 T01330025  RH  048%=      5-min Rain = 0
KSW1 060603Z 34010KT 13/03 A3011 RMK A01 T01330025  RH  048%=      5-min Rain = 0
KSW1 060604Z 34010KT 13/03 A3011 RMK A01 T01320026  RH  048%=      5-min Rain = 0
KSW1 060605Z 34010KT 13/03 A3011 RMK A01 T01320026  RH  049%=      5-min Rain = 0
KSW1 060606Z 34010KT 13/03 A3011 RMK A01 T01320026  RH  049%=      5-min Rain = 0
KSW1 060607Z 34010KT 13/03 A3011 RMK A01 T01310026  RH  049%=      5-min Rain = 0
KSW1 060608Z 34010KT 13/03 A3011 RMK A01 T01310026  RH  049%=      5-min Rain = 0
KSW1 060609Z 34010KT 13/03 A3011 RMK A01 T01300025  RH  049%=      5-min Rain = 0
KSW1 060610Z 34010KT 13/03 A3011 RMK A01 T01300026  RH  049%=      5-min Rain = 0
KSW1 060611Z 34010KT 13/03 A3011 RMK A01 T01300025  RH  049%=      5-min Rain = 0
KSW1 060612Z 34010KT 13/03 A3011 RMK A01 T01290026  RH  049%=      5-min Rain = 0
KSW1 060613Z 34010KT 13/03 A3011 RMK A01 T01290025  RH  049%=      5-min Rain = 0
KSW1 060614Z 34009KT 13/03 A3011 RMK A01 T01280025  RH  050%=      5-min Rain = 0
KSW1 060615Z 34009KT 13/03 A3011 RMK A01 T01270025  RH  050%=      5-min Rain = 0
KSW1 060616Z 34009KT 13/03 A3011 RMK A01 T01270025  RH  050%=      5-min Rain = 0
KSW1 060617Z 35009KT 13/03 A3011 RMK A01 T01270025  RH  050%=      5-min Rain = 0
KSW1 060618Z 35010KT 13/03 A3011 RMK A01 T01270026  RH  050%=      5-min Rain = 0
KSW1 060619Z 35010KT 13/03 A3011 RMK A01 T01260025  RH  050%=      5-min Rain = 0
KSW1 060620Z 35010KT 13/03 A3011 RMK A01 T01260026  RH  050%=      5-min Rain = 0
KSW1 060621Z 35009KT 13/03 A3011 RMK A01 T01250026  RH  051%=      5-min Rain = 0
KSW1 060622Z 34009KT 13/03 A3011 RMK A01 T01250026  RH  051%=      5-min Rain = 0
KSW1 060623Z 35009KT 12/03 A3011 RMK A01 T01240026  RH  051%=      5-min Rain = 0
KSW1 060624Z 34009KT 12/03 A3011 RMK A01 T01240026  RH  051%=      5-min Rain = 0
KSW1 060625Z 35009KT 12/03 A3011 RMK A01 T01240026  RH  051%=      5-min Rain = 0
KSW1 060626Z 35009KT 12/03 A3011 RMK A01 T01240026  RH  051%=      5-min Rain = 0
KSW1 060627Z 35009KT 12/03 A3011 RMK A01 T01230026  RH  052%=      5-min Rain = 0
KSW1 060628Z 35008KT 12/03 A3011 RMK A01 T01220026  RH  052%=      5-min Rain = 0
KSW1 060629Z 35009KT 12/03 A3011 RMK A01 T01220027  RH  052%=      5-min Rain = 0
KSW1 060630Z 34010KT 12/03 A3011 RMK A01 T01210026  RH  052%=      5-min Rain = 0
KSW1 060631Z 35010KT 12/03 A3011 RMK A01 T01210027  RH  052%=      5-min Rain = 0
KSW1 060632Z 34008KT 12/03 A3011 RMK A01 T01210027  RH  052%=      5-min Rain = 0
KSW1 060633Z 34009KT 12/03 A3011 RMK A01 T01210027  RH  053%=      5-min Rain = 0
KSW1 060634Z 34008KT 12/03 A3011 RMK A01 T01200027  RH  053%=      5-min Rain = 0
KSW1 060635Z 34010KT 12/03 A3011 RMK A01 T01200027  RH  053%=      5-min Rain = 0
KSW1 060636Z 34009KT 12/03 A3011 RMK A01 T01190027  RH  053%=      5-min Rain = 0
KSW1 060637Z 34008KT 12/03 A3011 RMK A01 T01190027  RH  053%=      5-min Rain = 0
KSW1 060638Z 34010KT 12/03 A3011 RMK A01 T01200027  RH  053%=      5-min Rain = 0
KSW1 060639Z 34008KT 12/03 A3011 RMK A01 T01210028  RH  053%=      5-min Rain = 0
KSW1 060640Z 34009KT 12/03 A3011 RMK A01 T01200028  RH  053%=      5-min Rain = 0
KSW1 060641Z 34010KT 12/03 A3011 RMK A01 T01200027  RH  053%=      5-min Rain = 0
KSW1 060642Z 34008KT 12/03 A3011 RMK A01 T01200028  RH  053%=      5-min Rain = 0
KSW1 060643Z 34010KT 12/03 A3012 RMK A01 T01190028  RH  054%=      5-min Rain = 0
KSW1 060644Z 34009KT 12/03 A3012 RMK A01 T01190028  RH  054%=      5-min Rain = 0
KSW1 060645Z 33010KT 12/03 A3012 RMK A01 T01190028  RH  054%=      5-min Rain = 0
KSW1 060646Z 34010KT 12/03 A3012 RMK A01 T01190029  RH  054%=      5-min Rain = 0
KSW1 060647Z 34010KT 12/03 A3012 RMK A01 T01190029  RH  054%=      5-min Rain = 0
KSW1 060648Z 33009KT 12/03 A3012 RMK A01 T01190029  RH  054%=      5-min Rain = 0
KSW1 060649Z 33009KT 12/03 A3012 RMK A01 T01190029  RH  054%=      5-min Rain = 0
KSW1 060650Z 34009KT 12/03 A3012 RMK A01 T01180029  RH  055%=      5-min Rain = 0
KSW1 060651Z 34009KT 12/03 A3012 RMK A01 T01170029  RH  055%=      5-min Rain = 0
KSW1 060652Z 34009KT 12/03 A3012 RMK A01 T01160029  RH  055%=      5-min Rain = 0
KSW1 060653Z 34011KT 12/03 A3012 RMK A01 T01160029  RH  055%=      5-min Rain = 0
KSW1 060654Z 34010KT 12/03 A3012 RMK A01 T01160030  RH  055%=      5-min Rain = 0
KSW1 060655Z 34011KT 12/03 A3012 RMK A01 T01160030  RH  055%=      5-min Rain = 0
KSW1 060656Z 34009KT 12/03 A3012 RMK A01 T01170030  RH  055%=      5-min Rain = 0
KSW1 060657Z 34009KT 12/03 A3012 RMK A01 T01160029  RH  055%=      5-min Rain = 0
KSW1 060658Z 34010KT 12/03 A3012 RMK A01 T01170030  RH  055%=      5-min Rain = 0
KSW1 060659Z 35011G16KT 12/03 A3013 RMK A01 T01170029  RH  055%=      5-min Rain = 0
KSW1 060700Z 34011KT 12/03 A3013 RMK A01 T01180030  RH  055%=      5-min Rain = 0
KSW1 060701Z 34011G16KT 12/03 A3013 RMK A01 T01180030  RH  055%=      5-min Rain = 0
KSW1 060702Z 34010KT 12/03 A3013 RMK A01 T01180030  RH  055%=      5-min Rain = 0
KSW1 060703Z 34012KT 12/03 A3013 RMK A01 T01170030  RH  055%=      5-min Rain = 0
KSW1 060704Z 34013KT 12/03 A3013 RMK A01 T01180030  RH  055%=      5-min Rain = 0
KSW1 060705Z 34012G17KT 12/03 A3013 RMK A01 T01180030  RH  055%=      5-min Rain = 0
KSW1 060706Z 34014G19KT 12/03 A3013 RMK A01 T01190030  RH  054%=      5-min Rain = 0
KSW1 060707Z 35016KT 12/03 A3013 RMK A01 T01190030  RH  054%=      5-min Rain = 0
KSW1 060708Z 35016KT 12/03 A3012 RMK A01 T01200029  RH  054%=      5-min Rain = 0
KSW1 060709Z 35015KT 12/03 A3013 RMK A01 T01210029  RH  053%=      5-min Rain = 0
KSW1 060710Z 35014KT 12/03 A3013 RMK A01 T01210029  RH  053%=      5-min Rain = 0
KSW1 060711Z 35013KT 12/03 A3013 RMK A01 T01210029  RH  053%=      5-min Rain = 0
KSW1 060712Z 35013KT 12/03 A3012 RMK A01 T01200029  RH  054%=      5-min Rain = 0
KSW1 060713Z 35013G18KT 12/03 A3013 RMK A01 T01190029  RH  054%=      5-min Rain = 0
KSW1 060714Z 35012G17KT 12/03 A3013 RMK A01 T01190029  RH  054%=      5-min Rain = 0
KSW1 060715Z 35012KT 12/03 A3013 RMK A01 T01180029  RH  054%=      5-min Rain = 0
KSW1 060716Z 35014G20KT 12/03 A3013 RMK A01 T01180029  RH  054%=      5-min Rain = 0
KSW1 060717Z 35012KT 12/03 A3013 RMK A01 T01180029  RH  054%=      5-min Rain = 0
KSW1 060718Z 35012KT 12/03 A3013 RMK A01 T01170029  RH  055%=      5-min Rain = 0
KSW1 060719Z 35014KT 12/03 A3013 RMK A01 T01160029  RH  055%=      5-min Rain = 0
KSW1 060720Z 35015KT 12/03 A3013 RMK A01 T01160029  RH  055%=      5-min Rain = 0
KSW1 060721Z 35014KT 12/03 A3013 RMK A01 T01160029  RH  055%=      5-min Rain = 0
KSW1 060722Z 36014KT 12/03 A3013 RMK A01 T01160029  RH  055%=      5-min Rain = 0
KSW1 060723Z 36016KT 12/03 A3013 RMK A01 T01160029  RH  055%=      5-min Rain = 0
KSW1 060724Z 35014KT 12/03 A3013 RMK A01 T01160029  RH  055%=      5-min Rain = 0
KSW1 060725Z 36016KT 12/03 A3013 RMK A01 T01150029  RH  055%=      5-min Rain = 0
KSW1 060726Z 36015KT 12/03 A3013 RMK A01 T01160029  RH  055%=      5-min Rain = 0
KSW1 060727Z 35015KT 12/03 A3013 RMK A01 T01160029  RH  055%=      5-min Rain = 0
KSW1 060728Z 36015G20KT 12/03 A3013 RMK A01 T01150029  RH  055%=      5-min Rain = 0
KSW1 060729Z 00015G20KT 12/03 A3013 RMK A01 T01150030  RH  056%=      5-min Rain = 0
KSW1 060730Z 35017KT 12/03 A3014 RMK A01 T01150029  RH  056%=      5-min Rain = 0
KSW1 060731Z 36017G25KT 12/03 A3014 RMK A01 T01150029  RH  056%=      5-min Rain = 0
KSW1 060732Z 35017G23KT 12/03 A3014 RMK A01 T01150029  RH  056%=      5-min Rain = 0
KSW1 060733Z 35015G20KT 12/03 A3014 RMK A01 T01160030  RH  056%=      5-min Rain = 0
KSW1 060734Z 35016KT 12/03 A3014 RMK A01 T01150029  RH  056%=      5-min Rain = 0
KSW1 060735Z 35014G20KT 11/03 A3014 RMK A01 T01140030  RH  056%=      5-min Rain = 0
KSW1 060736Z 35016G21KT 11/03 A3014 RMK A01 T01140030  RH  056%=      5-min Rain = 0
KSW1 060737Z 35015KT 11/03 A3014 RMK A01 T01130030  RH  056%=      5-min Rain = 0
KSW1 060738Z 35018G24KT 11/03 A3014 RMK A01 T01130030  RH  057%=      5-min Rain = 0
KSW1 060739Z 35016G22KT 11/03 A3014 RMK A01 T01120030  RH  057%=      5-min Rain = 0
KSW1 060740Z 35017G22KT 11/03 A3014 RMK A01 T01120030  RH  057%=      5-min Rain = 0
KSW1 060741Z 35019KT 11/03 A3014 RMK A01 T01120030  RH  057%=      5-min Rain = 0
KSW1 060742Z 35017KT 11/03 A3014 RMK A01 T01120030  RH  057%=      5-min Rain = 0
KSW1 060743Z 35018KT 11/03 A3014 RMK A01 T01120030  RH  057%=      5-min Rain = 0
KSW1 060744Z 35018KT 11/03 A3014 RMK A01 T01120030  RH  057%=      5-min Rain = 0
KSW1 060745Z 35018KT 11/03 A3014 RMK A01 T01120030  RH  057%=      5-min Rain = 0
KSW1 060746Z 35015KT 11/03 A3014 RMK A01 T01110030  RH  057%=      5-min Rain = 0
KSW1 060747Z 35015G20KT 11/03 A3015 RMK A01 T01110030  RH  058%=      5-min Rain = 0
KSW1 060748Z 35013G18KT 11/03 A3015 RMK A01 T01100030  RH  058%=      5-min Rain = 0
KSW1 060749Z 35015G21KT 11/03 A3015 RMK A01 T01090030  RH  058%=      5-min Rain = 0
KSW1 060750Z 35016G21KT 11/03 A3015 RMK A01 T01090030  RH  058%=      5-min Rain = 0
KSW1 060751Z 35015KT 11/03 A3015 RMK A01 T01080030  RH  058%=      5-min Rain = 0
KSW1 060752Z 35015G20KT 11/03 A3015 RMK A01 T01080030  RH  058%=      5-min Rain = 0
KSW1 060753Z 35014G19KT 11/03 A3015 RMK A01 T01080030  RH  059%=      5-min Rain = 0
KSW1 060754Z 35016KT 11/03 A3015 RMK A01 T01070030  RH  059%=      5-min Rain = 0
KSW1 060755Z 35016G22KT 11/03 A3015 RMK A01 T01080030  RH  059%=      5-min Rain = 0
KSW1 060756Z 35014KT 11/03 A3015 RMK A01 T01070029  RH  058%=      5-min Rain = 0
KSW1 060757Z 35014KT 11/03 A3015 RMK A01 T01070029  RH  059%=      5-min Rain = 0
KSW1 060758Z 35013KT 11/03 A3015 RMK A01 T01070029  RH  059%=      5-min Rain = 0
KSW1 060759Z 35013KT 11/03 A3016 RMK A01 T01060029  RH  059%=      5-min Rain = 0
KSW1 060800Z 35013KT 11/03 A3016 RMK A01 T01060029  RH  059%=      5-min Rain = 0
KSW1 060801Z 35015KT 11/03 A3016 RMK A01 T01060029  RH  059%=      5-min Rain = 0
KSW1 060802Z 35013KT 11/03 A3016 RMK A01 T01060029  RH  059%=      5-min Rain = 0
KSW1 060803Z 34014KT 11/03 A3016 RMK A01 T01060029  RH  059%=      5-min Rain = 0
KSW1 060804Z 35016KT 11/03 A3016 RMK A01 T01060029  RH  059%=      5-min Rain = 0
KSW1 060805Z 35016KT 11/03 A3016 RMK A01 T01050029  RH  059%=      5-min Rain = 0
KSW1 060806Z 35013KT 11/03 A3016 RMK A01 T01060029  RH  059%=      5-min Rain = 0
KSW1 060807Z 35016KT 11/03 A3016 RMK A01 T01060029  RH  059%=      5-min Rain = 0
KSW1 060808Z 35016KT 11/03 A3016 RMK A01 T01060029  RH  059%=      5-min Rain = 0
KSW1 060809Z 35014G19KT 11/03 A3016 RMK A01 T01050028  RH  059%=      5-min Rain = 0
KSW1 060810Z 35013KT 11/03 A3016 RMK A01 T01050029  RH  059%=      5-min Rain = 0
KSW1 060811Z 35015G20KT 10/03 A3016 RMK A01 T01040028  RH  059%=      5-min Rain = 0
KSW1 060812Z 35013KT 10/03 A3016 RMK A01 T01040028  RH  059%=      5-min Rain = 0
KSW1 060813Z 35015KT 10/03 A3016 RMK A01 T01040028  RH  059%=      5-min Rain = 0
KSW1 060814Z 35014G19KT 10/03 A3016 RMK A01 T01040028  RH  059%=      5-min Rain = 0
KSW1 060815Z 35017KT 10/03 A3016 RMK A01 T01040028  RH  059%=      5-min Rain = 0
KSW1 060816Z 35017G22KT 10/03 A3016 RMK A01 T01040028  RH  059%=      5-min Rain = 0
KSW1 060817Z 35016G23KT 10/03 A3016 RMK A01 T01040028  RH  059%=      5-min Rain = 0
KSW1 060818Z 35015KT 10/03 A3016 RMK A01 T01040028  RH  059%=      5-min Rain = 0
KSW1 060819Z 35014KT 10/03 A3016 RMK A01 T01040028  RH  059%=      5-min Rain = 0
KSW1 060820Z 35015G20KT 10/03 A3016 RMK A01 T01040028  RH  059%=      5-min Rain = 0
KSW1 060821Z 36016KT 10/03 A3016 RMK A01 T01040028  RH  059%=      5-min Rain = 0
KSW1 060822Z 35018G24KT 10/03 A3016 RMK A01 T01040028  RH  059%=      5-min Rain = 0
KSW1 060823Z 36018G23KT 10/03 A3016 RMK A01 T01040027  RH  059%=      5-min Rain = 0
KSW1 060824Z 35015KT 10/03 A3016 RMK A01 T01040027  RH  059%=      5-min Rain = 0
KSW1 060825Z 35017KT 10/03 A3016 RMK A01 T01040027  RH  059%=      5-min Rain = 0
KSW1 060826Z 36017KT 10/03 A3016 RMK A01 T01040027  RH  059%=      5-min Rain = 0
KSW1 060827Z 36017KT 10/03 A3016 RMK A01 T01040027  RH  059%=      5-min Rain = 0
KSW1 060828Z 36015KT 10/03 A3016 RMK A01 T01040027  RH  059%=      5-min Rain = 0
KSW1 060829Z 36016G21KT 10/03 A3016 RMK A01 T01030027  RH  059%=      5-min Rain = 0
KSW1 060830Z 36018KT 10/03 A3016 RMK A01 T01030027  RH  059%=      5-min Rain = 0
KSW1 060831Z 36013KT 10/03 A3017 RMK A01 T01030027  RH  059%=      5-min Rain = 0
KSW1 060832Z 36016KT 10/03 A3017 RMK A01 T01030027  RH  059%=      5-min Rain = 0
KSW1 060833Z 35015KT 10/03 A3017 RMK A01 T01020027  RH  060%=      5-min Rain = 0
KSW1 060834Z 36014KT 10/03 A3017 RMK A01 T01020027  RH  060%=      5-min Rain = 0
KSW1 060835Z 35015KT 10/03 A3017 RMK A01 T01020027  RH  060%=      5-min Rain = 0
KSW1 060836Z 36015G20KT 10/03 A3017 RMK A01 T01010027  RH  060%=      5-min Rain = 0
KSW1 060837Z 36016KT 10/03 A3017 RMK A01 T01010027  RH  060%=      5-min Rain = 0
KSW1 060838Z 36016KT 10/03 A3017 RMK A01 T01010027  RH  060%=      5-min Rain = 0
KSW1 060839Z 35016KT 10/03 A3017 RMK A01 T01010027  RH  060%=      5-min Rain = 0
KSW1 060840Z 36015KT 10/03 A3017 RMK A01 T01000027  RH  060%=      5-min Rain = 0
KSW1 060841Z 35015G20KT 10/03 A3017 RMK A01 T01000027  RH  060%=      5-min Rain = 0
KSW1 060842Z 35016KT 10/03 A3017 RMK A01 T01000027  RH  060%=      5-min Rain = 0
KSW1 060843Z 35014KT 10/03 A3017 RMK A01 T01000027  RH  061%=      5-min Rain = 0
KSW1 060844Z 36016KT 10/03 A3017 RMK A01 T00990027  RH  061%=      5-min Rain = 0
KSW1 060845Z 36018KT 10/03 A3017 RMK A01 T00990027  RH  061%=      5-min Rain = 0
KSW1 060846Z 35016KT 10/03 A3017 RMK A01 T01000026  RH  060%=      5-min Rain = 0
KSW1 060847Z 36017KT 10/03 A3017 RMK A01 T01000026  RH  060%=      5-min Rain = 0
KSW1 060848Z 36015G20KT 10/03 A3017 RMK A01 T01000026  RH  060%=      5-min Rain = 0
KSW1 060849Z 35015KT 10/03 A3017 RMK A01 T01000026  RH  060%=      5-min Rain = 0
KSW1 060850Z 36016KT 10/03 A3017 RMK A01 T00990026  RH  060%=      5-min Rain = 0
KSW1 060851Z 36017KT 10/03 A3017 RMK A01 T00990026  RH  060%=      5-min Rain = 0
KSW1 060852Z 35016G21KT 10/03 A3017 RMK A01 T00990026  RH  060%=      5-min Rain = 0
KSW1 060853Z 36017KT 10/03 A3017 RMK A01 T00990025  RH  060%=      5-min Rain = 0
KSW1 060854Z 35014G19KT 10/03 A3017 RMK A01 T00980025  RH  060%=      5-min Rain = 0
KSW1 060855Z 35016G23KT 10/03 A3017 RMK A01 T00980026  RH  061%=      5-min Rain = 0
KSW1 060856Z 36016KT 10/03 A3017 RMK A01 T00980025  RH  060%=      5-min Rain = 0
KSW1 060857Z 35017KT 10/03 A3017 RMK A01 T00980025  RH  060%=      5-min Rain = 0
KSW1 060858Z 35016KT 10/03 A3017 RMK A01 T00980025  RH  060%=      5-min Rain = 0
KSW1 060859Z 35016KT 10/03 A3017 RMK A01 T00980025  RH  060%=      5-min Rain = 0
KSW1 060900Z 36015KT 10/03 A3017 RMK A01 T00980025  RH  061%=      5-min Rain = 0
KSW1 060901Z 35019KT 10/03 A3017 RMK A01 T00970025  RH  061%=      5-min Rain = 0
KSW1 060902Z 36015KT 10/03 A3017 RMK A01 T00970025  RH  060%=      5-min Rain = 0
KSW1 060903Z 35018G23KT 10/03 A3017 RMK A01 T00970025  RH  061%=      5-min Rain = 0
KSW1 060904Z 35016G22KT 10/02 A3017 RMK A01 T00970024  RH  061%=      5-min Rain = 0
KSW1 060905Z 35015KT 10/03 A3017 RMK A01 T00970025  RH  061%=      5-min Rain = 0
KSW1 060906Z 35015KT 10/02 A3017 RMK A01 T00960024  RH  061%=      5-min Rain = 0
KSW1 060907Z 36017G22KT 10/02 A3017 RMK A01 T00960024  RH  061%=      5-min Rain = 0
KSW1 060908Z 36018KT 10/02 A3017 RMK A01 T00960024  RH  061%=      5-min Rain = 0
KSW1 060909Z 36018KT 10/02 A3017 RMK A01 T00960024  RH  061%=      5-min Rain = 0
KSW1 060910Z 00018KT 10/02 A3017 RMK A01 T00960024  RH  061%=      5-min Rain = 0
KSW1 060911Z 36016G22KT 10/02 A3017 RMK A01 T00960024  RH  061%=      5-min Rain = 0
KSW1 060912Z 36016KT 10/02 A3017 RMK A01 T00960024  RH  060%=      5-min Rain = 0
KSW1 060913Z 00015KT 10/02 A3017 RMK A01 T00960024  RH  061%=      5-min Rain = 0
KSW1 060914Z 00014G19KT 10/02 A3018 RMK A01 T00960024  RH  061%=      5-min Rain = 0
KSW1 060915Z 01014KT 10/02 A3018 RMK A01 T00950024  RH  061%=      5-min Rain = 0
KSW1 060916Z 36014KT 09/02 A3018 RMK A01 T00940024  RH  061%=      5-min Rain = 0
KSW1 060917Z 01014KT 09/02 A3018 RMK A01 T00940024  RH  062%=      5-min Rain = 0
KSW1 060918Z 36014KT 09/02 A3018 RMK A01 T00940024  RH  062%=      5-min Rain = 0
KSW1 060919Z 00014G19KT 09/02 A3018 RMK A01 T00940024  RH  062%=      5-min Rain = 0
KSW1 060920Z 00015G20KT 09/02 A3018 RMK A01 T00940023  RH  061%=      5-min Rain = 0
KSW1 060921Z 00014G19KT 09/02 A3018 RMK A01 T00940023  RH  061%=      5-min Rain = 0
KSW1 060922Z 00014KT 09/02 A3018 RMK A01 T00940024  RH  061%=      5-min Rain = 0
KSW1 060923Z 00013KT 09/02 A3018 RMK A01 T00930023  RH  062%=      5-min Rain = 0
KSW1 060924Z 00014KT 09/02 A3018 RMK A01 T00930023  RH  062%=      5-min Rain = 0
KSW1 060925Z 00015KT 09/02 A3018 RMK A01 T00930023  RH  062%=      5-min Rain = 0
KSW1 060926Z 36015KT 09/02 A3018 RMK A01 T00930023  RH  062%=      5-min Rain = 0
KSW1 060927Z 00013KT 09/02 A3018 RMK A01 T00930023  RH  062%=      5-min Rain = 0
KSW1 060928Z 00013KT 09/02 A3018 RMK A01 T00930023  RH  062%=      5-min Rain = 0
KSW1 060929Z 00012KT 09/02 A3018 RMK A01 T00920023  RH  062%=      5-min Rain = 0
KSW1 060930Z 36014KT 09/02 A3018 RMK A01 T00910023  RH  062%=      5-min Rain = 0
KSW1 060931Z 00015KT 09/02 A3018 RMK A01 T00910023  RH  062%=      5-min Rain = 0
KSW1 060932Z 00013KT 09/02 A3018 RMK A01 T00910023  RH  062%=      5-min Rain = 0
KSW1 060933Z 00012G17KT 09/02 A3018 RMK A01 T00910023  RH  062%=      5-min Rain = 0
KSW1 060934Z 36012G17KT 09/02 A3018 RMK A01 T00910023  RH  063%=      5-min Rain = 0
KSW1 060935Z 00013G20KT 09/02 A3018 RMK A01 T00900023  RH  063%=      5-min Rain = 0
KSW1 060936Z 00015KT 09/02 A3018 RMK A01 T00900023  RH  063%=      5-min Rain = 0
KSW1 060937Z 36014KT 09/02 A3019 RMK A01 T00900023  RH  063%=      5-min Rain = 0
KSW1 060938Z 36014KT 09/02 A3019 RMK A01 T00910023  RH  063%=      5-min Rain = 0
KSW1 060939Z 36015KT 09/02 A3019 RMK A01 T00910023  RH  062%=      5-min Rain = 0
KSW1 060940Z 36014G19KT 09/02 A3019 RMK A01 T00900022  RH  062%=      5-min Rain = 0
KSW1 060941Z 36014KT 09/02 A3019 RMK A01 T00900022  RH  062%=      5-min Rain = 0
KSW1 060942Z 36015KT 09/02 A3019 RMK A01 T00910023  RH  063%=      5-min Rain = 0
KSW1 060943Z 35015KT 09/02 A3019 RMK A01 T00910023  RH  062%=      5-min Rain = 0
KSW1 060944Z 35013KT 09/02 A3019 RMK A01 T00900023  RH  063%=      5-min Rain = 0
KSW1 060945Z 36013KT 09/02 A3019 RMK A01 T00900023  RH  063%=      5-min Rain = 0
KSW1 060946Z 35014G19KT 09/02 A3019 RMK A01 T00900022  RH  063%=      5-min Rain = 0
KSW1 060947Z 36015G20KT 09/02 A3019 RMK A01 T00900022  RH  063%=      5-min Rain = 0
KSW1 060948Z 36017G22KT 09/02 A3019 RMK A01 T00900023  RH  063%=      5-min Rain = 0
KSW1 060949Z 36013KT 09/02 A3019 RMK A01 T00900022  RH  062%=      5-min Rain = 0
KSW1 060950Z 36014KT 09/02 A3019 RMK A01 T00910022  RH  062%=      5-min Rain = 0
KSW1 060951Z 36015G20KT 09/02 A3019 RMK A01 T00900022  RH  062%=      5-min Rain = 0
KSW1 060952Z 36013G20KT 09/02 A3019 RMK A01 T00900022  RH  063%=      5-min Rain = 0
KSW1 060953Z 36012G17KT 09/02 A3019 RMK A01 T00890022  RH  063%=      5-min Rain = 0
KSW1 060954Z 00013KT 09/02 A3019 RMK A01 T00890022  RH  063%=      5-min Rain = 0
KSW1 060955Z 00013KT 09/02 A3019 RMK A01 T00890022  RH  063%=      5-min Rain = 0
KSW1 060956Z 00011KT 09/02 A3019 RMK A01 T00890022  RH  063%=      5-min Rain = 0
KSW1 060957Z 36013KT 09/02 A3019 RMK A01 T00880022  RH  063%=      5-min Rain = 0
KSW1 060958Z 36012KT 09/02 A3019 RMK A01 T00880022  RH  063%=      5-min Rain = 0
KSW1 060959Z 36012KT 09/02 A3019 RMK A01 T00880022  RH  063%=      5-min Rain = 0
KSW1 061000Z 00012KT 09/02 A3019 RMK A01 T00880022  RH  063%=      5-min Rain = 0
KSW1 061001Z 00012KT 09/02 A3019 RMK A01 T00880022  RH  063%=      5-min Rain = 0
KSW1 061002Z 36011KT 09/02 A302 RMK A01 T00880022  RH  063%=      5-min Rain = 0
KSW1 061003Z 00011KT 09/02 A302 RMK A01 T00870021  RH  063%=      5-min Rain = 0
KSW1 061004Z 00011KT 09/02 A302 RMK A01 T00870022  RH  063%=      5-min Rain = 0
KSW1 061005Z 36010KT 09/02 A302 RMK A01 T00870022  RH  063%=      5-min Rain = 0
KSW1 061006Z 00010KT 09/02 A302 RMK A01 T00860021  RH  064%=      5-min Rain = 0
KSW1 061007Z 00010KT 09/02 A302 RMK A01 T00860022  RH  064%=      5-min Rain = 0
KSW1 061008Z 01010KT 09/02 A302 RMK A01 T00850021  RH  064%=      5-min Rain = 0
KSW1 061009Z 01009KT 09/02 A302 RMK A01 T00850021  RH  064%=      5-min Rain = 0
KSW1 061010Z 00009KT 08/02 A302 RMK A01 T00840021  RH  065%=      5-min Rain = 0
KSW1 061011Z 00008KT 08/02 A302 RMK A01 T00840021  RH  065%=      5-min Rain = 0
KSW1 061012Z 00009KT 08/02 A302 RMK A01 T00830021  RH  065%=      5-min Rain = 0
KSW1 061013Z 01009KT 08/02 A302 RMK A01 T00830021  RH  065%=      5-min Rain = 0
KSW1 061014Z 36009KT 08/02 A302 RMK A01 T00830021  RH  065%=      5-min Rain = 0
KSW1 061015Z 35008KT 08/02 A302 RMK A01 T00830021  RH  065%=      5-min Rain = 0
KSW1 061016Z 00008KT 08/02 A302 RMK A01 T00820021  RH  065%=      5-min Rain = 0
KSW1 061017Z 36010KT 08/02 A302 RMK A01 T00820021  RH  065%=      5-min Rain = 0
KSW1 061018Z 36010KT 08/02 A302 RMK A01 T00820021  RH  065%=      5-min Rain = 0
KSW1 061019Z 36008KT 08/02 A302 RMK A01 T00820021  RH  065%=      5-min Rain = 0
KSW1 061020Z 36010KT 08/02 A302 RMK A01 T00820021  RH  066%=      5-min Rain = 0
KSW1 061021Z 36011KT 08/02 A302 RMK A01 T00810021  RH  066%=      5-min Rain = 0
KSW1 061022Z 00010KT 08/02 A302 RMK A01 T00810021  RH  066%=      5-min Rain = 0
KSW1 061023Z 36010KT 08/02 A302 RMK A01 T00820021  RH  066%=      5-min Rain = 0
KSW1 061024Z 35011KT 08/02 A302 RMK A01 T00820021  RH  066%=      5-min Rain = 0
KSW1 061025Z 35010KT 08/02 A302 RMK A01 T00820021  RH  066%=      5-min Rain = 0
KSW1 061026Z 35010KT 08/02 A302 RMK A01 T00810021  RH  066%=      5-min Rain = 0
KSW1 061027Z 36011KT 08/02 A302 RMK A01 T00810021  RH  066%=      5-min Rain = 0
KSW1 061028Z 35011KT 08/02 A302 RMK A01 T00810021  RH  066%=      5-min Rain = 0
KSW1 061029Z 35010KT 08/02 A302 RMK A01 T00810021  RH  066%=      5-min Rain = 0
KSW1 061030Z 35010KT 08/02 A302 RMK A01 T00810021  RH  066%=      5-min Rain = 0
KSW1 061031Z 35011KT 08/02 A302 RMK A01 T00810022  RH  066%=      5-min Rain = 0
KSW1 061032Z 35011KT 08/02 A302 RMK A01 T00810021  RH  066%=      5-min Rain = 0
KSW1 061033Z 35010KT 08/02 A3021 RMK A01 T00810021  RH  066%=      5-min Rain = 0
KSW1 061034Z 35009KT 08/02 A3021 RMK A01 T00810021  RH  066%=      5-min Rain = 0
KSW1 061035Z 35011KT 08/02 A3021 RMK A01 T00800021  RH  066%=      5-min Rain = 0
KSW1 061036Z 35009KT 08/02 A3021 RMK A01 T00800021  RH  066%=      5-min Rain = 0
KSW1 061037Z 35009KT 08/02 A302 RMK A01 T00800021  RH  066%=      5-min Rain = 0
KSW1 061038Z 35008KT 08/02 A302 RMK A01 T00800021  RH  066%=      5-min Rain = 0
KSW1 061039Z 35009KT 08/02 A302 RMK A01 T00790021  RH  067%=      5-min Rain = 0
KSW1 061040Z 35009KT 08/02 A302 RMK A01 T00780021  RH  067%=      5-min Rain = 0
KSW1 061041Z 35009KT 08/02 A302 RMK A01 T00780021  RH  067%=      5-min Rain = 0
KSW1 061042Z 35008KT 08/02 A3021 RMK A01 T00780021  RH  067%=      5-min Rain = 0
KSW1 061043Z 35008KT 08/02 A3021 RMK A01 T00770021  RH  067%=      5-min Rain = 0
KSW1 061044Z 35007KT 08/02 A3021 RMK A01 T00770021  RH  067%=      5-min Rain = 0
KSW1 061045Z 35007KT 08/02 A3021 RMK A01 T00770020  RH  067%=      5-min Rain = 0
KSW1 061046Z 35007KT 08/02 A3021 RMK A01 T00760020  RH  068%=      5-min Rain = 0
KSW1 061047Z 35007KT 08/02 A3021 RMK A01 T00750021  RH  068%=      5-min Rain = 0
KSW1 061048Z 35009KT 08/02 A3021 RMK A01 T00750020  RH  068%=      5-min Rain = 0
KSW1 061049Z 35008KT 07/02 A3021 RMK A01 T00740021  RH  069%=      5-min Rain = 0
KSW1 061050Z 35008KT 07/02 A3021 RMK A01 T00740021  RH  069%=      5-min Rain = 0
KSW1 061051Z 35008KT 07/02 A3021 RMK A01 T00740021  RH  069%=      5-min Rain = 0
KSW1 061052Z 35009KT 07/02 A3021 RMK A01 T00730021  RH  069%=      5-min Rain = 0
KSW1 061053Z 35008KT 07/02 A3021 RMK A01 T00730021  RH  069%=      5-min Rain = 0
KSW1 061054Z 34009KT 07/02 A3021 RMK A01 T00740021  RH  069%=      5-min Rain = 0
KSW1 061055Z 35008KT 07/02 A3021 RMK A01 T00730021  RH  069%=      5-min Rain = 0
KSW1 061056Z 35009KT 07/02 A3021 RMK A01 T00720020  RH  070%=      5-min Rain = 0
KSW1 061057Z 35008KT 07/02 A3021 RMK A01 T00710020  RH  070%=      5-min Rain = 0
KSW1 061058Z 35009KT 07/02 A3021 RMK A01 T00710020  RH  070%=      5-min Rain = 0
KSW1 061059Z 35008KT 07/02 A3021 RMK A01 T00710021  RH  070%=      5-min Rain = 0
KSW1 061100Z 34009KT 07/02 A3021 RMK A01 T00710021  RH  071%=      5-min Rain = 0
KSW1 061101Z 34009KT 07/02 A3021 RMK A01 T00710021  RH  071%=      5-min Rain = 0
KSW1 061102Z 34009KT 07/02 A3021 RMK A01 T00710021  RH  071%=      5-min Rain = 0
KSW1 061103Z 34010KT 07/02 A3021 RMK A01 T00700021  RH  071%=      5-min Rain = 0
KSW1 061104Z 34010KT 07/02 A3021 RMK A01 T00710021  RH  071%=      5-min Rain = 0
KSW1 061105Z 34011KT 07/02 A3021 RMK A01 T00710021  RH  071%=      5-min Rain = 0
KSW1 061106Z 34011KT 07/02 A3021 RMK A01 T00710022  RH  071%=      5-min Rain = 0
KSW1 061107Z 34011KT 07/02 A3021 RMK A01 T00710022  RH  071%=      5-min Rain = 0
KSW1 061108Z 34011KT 07/02 A3021 RMK A01 T00720022  RH  070%=      5-min Rain = 0
KSW1 061109Z 34011KT 07/02 A3021 RMK A01 T00720022  RH  070%=      5-min Rain = 0
KSW1 061110Z 35010KT 07/02 A3021 RMK A01 T00720022  RH  070%=      5-min Rain = 0
KSW1 061111Z 34011KT 07/02 A3021 RMK A01 T00720022  RH  070%=      5-min Rain = 0
KSW1 061112Z 34009KT 07/02 A3021 RMK A01 T00720022  RH  070%=      5-min Rain = 0
KSW1 061113Z 34010KT 07/02 A3021 RMK A01 T00720021  RH  070%=      5-min Rain = 0
KSW1 061114Z 35009KT 07/02 A3021 RMK A01 T00720021  RH  070%=      5-min Rain = 0
KSW1 061115Z 34009KT 07/02 A3022 RMK A01 T00720021  RH  070%=      5-min Rain = 0
KSW1 061116Z 35009KT 07/02 A3022 RMK A01 T00720021  RH  070%=      5-min Rain = 0
KSW1 061117Z 34008KT 07/02 A3022 RMK A01 T00720021  RH  070%=      5-min Rain = 0
KSW1 061118Z 35007KT 07/02 A3022 RMK A01 T00720021  RH  070%=      5-min Rain = 0
KSW1 061119Z 35008KT 07/02 A3022 RMK A01 T00710021  RH  070%=      5-min Rain = 0
KSW1 061120Z 35008KT 07/02 A3022 RMK A01 T00700021  RH  071%=      5-min Rain = 0
KSW1 061121Z 35008KT 07/02 A3022 RMK A01 T00700021  RH  071%=      5-min Rain = 0
KSW1 061122Z 35007KT 07/02 A3022 RMK A01 T00700021  RH  071%=      5-min Rain = 0
KSW1 061123Z 35008KT 07/02 A3022 RMK A01 T00690021  RH  071%=      5-min Rain = 0
KSW1 061124Z 34008KT 07/02 A3022 RMK A01 T00680021  RH  072%=      5-min Rain = 0
KSW1 061125Z 34008KT 07/02 A3022 RMK A01 T00680021  RH  072%=      5-min Rain = 0
KSW1 061126Z 34007KT 07/02 A3022 RMK A01 T00670020  RH  072%=      5-min Rain = 0
KSW1 061127Z 34007KT 07/02 A3022 RMK A01 T00660020  RH  072%=      5-min Rain = 0
KSW1 061128Z 34008KT 07/02 A3022 RMK A01 T00660020  RH  073%=      5-min Rain = 0
KSW1 061129Z 34009KT 07/02 A3022 RMK A01 T00660021  RH  073%=      5-min Rain = 0
KSW1 061130Z 34009KT 07/02 A3022 RMK A01 T00660021  RH  073%=      5-min Rain = 0
KSW1 061131Z 34009KT 07/02 A3022 RMK A01 T00660021  RH  073%=      5-min Rain = 0
KSW1 061132Z 34009KT 07/02 A3022 RMK A01 T00660021  RH  073%=      5-min Rain = 0
KSW1 061133Z 34009KT 07/02 A3022 RMK A01 T00660021  RH  073%=      5-min Rain = 0
KSW1 061134Z 34009KT 07/02 A3022 RMK A01 T00660021  RH  073%=      5-min Rain = 0
KSW1 061135Z 34009KT 07/02 A3022 RMK A01 T00660021  RH  073%=      5-min Rain = 0
KSW1 061136Z 34010KT 07/02 A3022 RMK A01 T00660021  RH  073%=      5-min Rain = 0
KSW1 061137Z 34010KT 07/02 A3022 RMK A01 T00650021  RH  073%=      5-min Rain = 0
KSW1 061138Z 34009KT 07/02 A3022 RMK A01 T00650021  RH  073%=      5-min Rain = 0
KSW1 061139Z 34010KT 07/02 A3022 RMK A01 T00650021  RH  073%=      5-min Rain = 0
KSW1 061140Z 34009KT 07/02 A3022 RMK A01 T00650021  RH  073%=      5-min Rain = 0
KSW1 061141Z 34009KT 07/02 A3022 RMK A01 T00650021  RH  073%=      5-min Rain = 0
KSW1 061142Z 34009KT 07/02 A3022 RMK A01 T00650021  RH  073%=      5-min Rain = 0
KSW1 061143Z 34008KT 06/02 A3022 RMK A01 T00640021  RH  074%=      5-min Rain = 0
KSW1 061144Z 34008KT 06/02 A3023 RMK A01 T00640021  RH  074%=      5-min Rain = 0
KSW1 061145Z 33008KT 06/02 A3023 RMK A01 T00640020  RH  074%=      5-min Rain = 0
KSW1 061146Z 33008KT 06/02 A3023 RMK A01 T00640020  RH  074%=      5-min Rain = 0
KSW1 061147Z 33008KT 06/02 A3023 RMK A01 T00640021  RH  074%=      5-min Rain = 0
KSW1 061148Z 33008KT 06/02 A3023 RMK A01 T00630020  RH  074%=      5-min Rain = 0
KSW1 061149Z 33007KT 06/02 A3023 RMK A01 T00630020  RH  074%=      5-min Rain = 0
KSW1 061150Z 33007KT 06/02 A3023 RMK A01 T00630020  RH  074%=      5-min Rain = 0
KSW1 061151Z 33006KT 06/02 A3023 RMK A01 T00630020  RH  074%=      5-min Rain = 0
KSW1 061152Z 33006KT 06/02 A3023 RMK A01 T00630020  RH  074%=      5-min Rain = 0
KSW1 061153Z 33006KT 06/02 A3023 RMK A01 T00630020  RH  074%=      5-min Rain = 0
KSW1 061154Z 33007KT 06/02 A3023 RMK A01 T00620020  RH  075%=      5-min Rain = 0
KSW1 061155Z 33007KT 06/02 A3023 RMK A01 T00620020  RH  075%=      5-min Rain = 0
KSW1 061156Z 33007KT 06/02 A3023 RMK A01 T00620021  RH  075%=      5-min Rain = 0
KSW1 061157Z 33007KT 06/02 A3023 RMK A01 T00620021  RH  075%=      5-min Rain = 0
KSW1 061158Z 33007KT 06/02 A3023 RMK A01 T00610020  RH  075%=      5-min Rain = 0
KSW1 061159Z 32007KT 06/02 A3023 RMK A01 T00610020  RH  075%=      5-min Rain = 0
KSW1 061200Z 33007KT 06/02 A3023 RMK A01 T00600020  RH  075%=      5-min Rain = 0
KSW1 061201Z 33007KT 06/02 A3023 RMK A01 T00600020  RH  075%=      5-min Rain = 0
KSW1 061202Z 33008KT 06/02 A3023 RMK A01 T00600020  RH  075%=      5-min Rain = 0
KSW1 061203Z 33008KT 06/02 A3023 RMK A01 T00600020  RH  076%=      5-min Rain = 0
KSW1 061204Z 33007KT 06/02 A3023 RMK A01 T00600020  RH  076%=      5-min Rain = 0
KSW1 061205Z 33007KT 06/02 A3023 RMK A01 T00600020  RH  076%=      5-min Rain = 0
KSW1 061206Z 33007KT 06/02 A3023 RMK A01 T00600020  RH  076%=      5-min Rain = 0
KSW1 061207Z 33006KT 06/02 A3023 RMK A01 T00600020  RH  076%=      5-min Rain = 0
KSW1 061208Z 33006KT 06/02 A3024 RMK A01 T00600020  RH  076%=      5-min Rain = 0
KSW1 061209Z 33005KT 06/02 A3024 RMK A01 T00590020  RH  076%=      5-min Rain = 0
KSW1 061210Z 33006KT 06/02 A3024 RMK A01 T00590020  RH  076%=      5-min Rain = 0
KSW1 061211Z 33005KT 06/02 A3024 RMK A01 T00590020  RH  076%=      5-min Rain = 0
KSW1 061212Z 34004KT 06/02 A3024 RMK A01 T00580020  RH  076%=      5-min Rain = 0
KSW1 061213Z 34005KT 06/02 A3024 RMK A01 T00590020  RH  076%=      5-min Rain = 0
KSW1 061214Z 34005KT 06/02 A3025 RMK A01 T00580020  RH  076%=      5-min Rain = 0
KSW1 061215Z 33005KT 06/02 A3025 RMK A01 T00580019  RH  076%=      5-min Rain = 0
KSW1 061216Z 34005KT 06/02 A3025 RMK A01 T00570019  RH  077%=      5-min Rain = 0
KSW1 061217Z 33005KT 06/02 A3025 RMK A01 T00560019  RH  077%=      5-min Rain = 0
KSW1 061218Z 33006KT 06/02 A3025 RMK A01 T00560019  RH  077%=      5-min Rain = 0
KSW1 061219Z 33006KT 06/02 A3025 RMK A01 T00550019  RH  078%=      5-min Rain = 0
KSW1 061220Z 33007KT 06/02 A3025 RMK A01 T00550019  RH  078%=      5-min Rain = 0
KSW1 061221Z 33007KT 06/02 A3025 RMK A01 T00550020  RH  078%=      5-min Rain = 0
KSW1 061222Z 33007KT 06/02 A3025 RMK A01 T00550020  RH  078%=      5-min Rain = 0
KSW1 061223Z 33008KT 06/02 A3025 RMK A01 T00550020  RH  078%=      5-min Rain = 0
KSW1 061224Z 33008KT 06/02 A3025 RMK A01 T00550021  RH  078%=      5-min Rain = 0
KSW1 061225Z 33008KT 06/02 A3025 RMK A01 T00550021  RH  078%=      5-min Rain = 0
KSW1 061226Z 33008KT 06/02 A3025 RMK A01 T00560021  RH  078%=      5-min Rain = 0
KSW1 061227Z 33008KT 06/02 A3025 RMK A01 T00560021  RH  078%=      5-min Rain = 0
KSW1 061228Z 33008KT 06/02 A3025 RMK A01 T00570021  RH  078%=      5-min Rain = 0
KSW1 061229Z 33008KT 06/02 A3025 RMK A01 T00570021  RH  078%=      5-min Rain = 0
KSW1 061230Z 33009KT 06/02 A3025 RMK A01 T00570022  RH  078%=      5-min Rain = 0
KSW1 061231Z 33008KT 06/02 A3025 RMK A01 T00580022  RH  078%=      5-min Rain = 0
KSW1 061232Z 33008KT 06/02 A3025 RMK A01 T00580022  RH  077%=      5-min Rain = 0
KSW1 061233Z 33007KT 06/02 A3025 RMK A01 T00580022  RH  077%=      5-min Rain = 0
KSW1 061234Z 33007KT 06/02 A3025 RMK A01 T00580021  RH  077%=      5-min Rain = 0
KSW1 061235Z 33007KT 06/02 A3026 RMK A01 T00580021  RH  077%=      5-min Rain = 0
KSW1 061236Z 34006KT 06/02 A3026 RMK A01 T00570021  RH  078%=      5-min Rain = 0
KSW1 061237Z 33005KT 06/02 A3026 RMK A01 T00570021  RH  078%=      5-min Rain = 0
KSW1 061238Z 33006KT 06/02 A3026 RMK A01 T00570021  RH  078%=      5-min Rain = 0
KSW1 061239Z 34006KT 06/02 A3026 RMK A01 T00560021  RH  078%=      5-min Rain = 0
KSW1 061240Z 33005KT 06/02 A3026 RMK A01 T00560021  RH  078%=      5-min Rain = 0
KSW1 061241Z 33004KT 06/02 A3026 RMK A01 T00560021  RH  078%=      5-min Rain = 0
KSW1 061242Z 33004KT 06/02 A3027 RMK A01 T00560020  RH  078%=      5-min Rain = 0
KSW1 061243Z 33004KT 06/02 A3027 RMK A01 T00550020  RH  079%=      5-min Rain = 0
KSW1 061244Z 34004KT 06/02 A3027 RMK A01 T00550021  RH  079%=      5-min Rain = 0
KSW1 061245Z 34005KT 06/02 A3027 RMK A01 T00550021  RH  079%=      5-min Rain = 0
KSW1 061246Z 33005KT 06/02 A3027 RMK A01 T00550021  RH  079%=      5-min Rain = 0
KSW1 061247Z 34005KT 06/02 A3027 RMK A01 T00550021  RH  079%=      5-min Rain = 0
KSW1 061248Z 34006KT 05/02 A3027 RMK A01 T00540020  RH  079%=      5-min Rain = 0
KSW1 061249Z 34007KT 05/02 A3027 RMK A01 T00540020  RH  079%=      5-min Rain = 0
KSW1 061250Z 34007KT 05/02 A3027 RMK A01 T00530020  RH  079%=      5-min Rain = 0
KSW1 061251Z 34006KT 05/02 A3027 RMK A01 T00530020  RH  079%=      5-min Rain = 0
KSW1 061252Z 34007KT 05/02 A3027 RMK A01 T00530020  RH  080%=      5-min Rain = 0
KSW1 061253Z 35006KT 05/02 A3027 RMK A01 T00520021  RH  080%=      5-min Rain = 0
KSW1 061254Z 34007KT 05/02 A3027 RMK A01 T00520021  RH  080%=      5-min Rain = 0
KSW1 061255Z 35006KT 05/02 A3027 RMK A01 T00530021  RH  080%=      5-min Rain = 0
KSW1 061256Z 34007KT 05/02 A3027 RMK A01 T00530021  RH  080%=      5-min Rain = 0
KSW1 061257Z 34006KT 05/02 A3027 RMK A01 T00530021  RH  080%=      5-min Rain = 0
KSW1 061258Z 34005KT 05/02 A3027 RMK A01 T00540021  RH  080%=      5-min Rain = 0
KSW1 061259Z 34005KT 05/02 A3027 RMK A01 T00540021  RH  079%=      5-min Rain = 0
KSW1 061300Z 35005KT 05/02 A3027 RMK A01 T00530020  RH  079%=      5-min Rain = 0
KSW1 061301Z 34005KT 05/02 A3027 RMK A01 T00530020  RH  079%=      5-min Rain = 0
KSW1 061302Z 35004KT 05/02 A3027 RMK A01 T00530021  RH  080%=      5-min Rain = 0
KSW1 061303Z 34005KT 05/02 A3027 RMK A01 T00530021  RH  080%=      5-min Rain = 0
KSW1 061304Z 35005KT 05/02 A3027 RMK A01 T00530020  RH  079%=      5-min Rain = 0
KSW1 061305Z 34004KT 05/02 A3027 RMK A01 T00530020  RH  079%=      5-min Rain = 0
KSW1 061306Z 35005KT 05/02 A3028 RMK A01 T00530020  RH  079%=      5-min Rain = 0
KSW1 061307Z 35004KT 05/02 A3028 RMK A01 T00530020  RH  079%=      5-min Rain = 0
KSW1 061308Z 35004KT 05/02 A3028 RMK A01 T00530020  RH  079%=      5-min Rain = 0
KSW1 061309Z 35004KT 05/02 A3028 RMK A01 T00520020  RH  079%=      5-min Rain = 0
KSW1 061310Z 35004KT 05/02 A3028 RMK A01 T00520019  RH  080%=      5-min Rain = 0
KSW1 061311Z 34003KT 05/02 A3028 RMK A01 T00520020  RH  080%=      5-min Rain = 0
KSW1 061312Z 34004KT 05/02 A3028 RMK A01 T00520020  RH  080%=      5-min Rain = 0
KSW1 061313Z 36005KT 05/02 A3028 RMK A01 T00520020  RH  080%=      5-min Rain = 0
KSW1 061314Z 36003KT 05/02 A3028 RMK A01 T00520020  RH  080%=      5-min Rain = 0
KSW1 061315Z 36003KT 05/02 A3028 RMK A01 T00520020  RH  080%=      5-min Rain = 0
KSW1 061316Z 36004KT 05/02 A3029 RMK A01 T00510020  RH  080%=      5-min Rain = 0
KSW1 061317Z 36004KT 05/02 A3029 RMK A01 T00510020  RH  080%=      5-min Rain = 0
KSW1 061318Z 00004KT 05/02 A3029 RMK A01 T00510020  RH  080%=      5-min Rain = 0
KSW1 061319Z 01005KT 05/02 A3029 RMK A01 T00500019  RH  080%=      5-min Rain = 0
KSW1 061320Z 01005KT 05/02 A3029 RMK A01 T00500019  RH  080%=      5-min Rain = 0
KSW1 061321Z 01005KT 05/02 A3029 RMK A01 T00500019  RH  081%=      5-min Rain = 0
KSW1 061322Z 01005KT 05/02 A3029 RMK A01 T00490019  RH  081%=      5-min Rain = 0
KSW1 061323Z 01005KT 05/02 A3029 RMK A01 T00490018  RH  081%=      5-min Rain = 0
KSW1 061324Z 01006KT 05/02 A3029 RMK A01 T00480018  RH  081%=      5-min Rain = 0
KSW1 061325Z 01006KT 05/02 A3029 RMK A01 T00480019  RH  082%=      5-min Rain = 0
KSW1 061326Z 01006KT 05/02 A3029 RMK A01 T00470019  RH  082%=      5-min Rain = 0
KSW1 061327Z 02007KT 05/02 A3029 RMK A01 T00470019  RH  082%=      5-min Rain = 0
KSW1 061328Z 02007KT 05/02 A3029 RMK A01 T00470019  RH  082%=      5-min Rain = 0
KSW1 061329Z 02007KT 05/02 A3029 RMK A01 T00480019  RH  082%=      5-min Rain = 0
KSW1 061330Z 02007KT 05/02 A3029 RMK A01 T00470019  RH  082%=      5-min Rain = 0
KSW1 061331Z 02008KT 05/02 A3029 RMK A01 T00470019  RH  082%=      5-min Rain = 0
KSW1 061332Z 01008KT 05/02 A3029 RMK A01 T00480020  RH  082%=      5-min Rain = 0
KSW1 061333Z 01007KT 05/02 A3029 RMK A01 T00480020  RH  082%=      5-min Rain = 0
KSW1 061334Z 01008KT 05/02 A3029 RMK A01 T00480020  RH  082%=      5-min Rain = 0
KSW1 061335Z 01008KT 05/02 A3029 RMK A01 T00490021  RH  082%=      5-min Rain = 0
KSW1 061336Z 01008KT 05/02 A3029 RMK A01 T00500021  RH  082%=      5-min Rain = 0
KSW1 061337Z 01008KT 05/02 A3029 RMK A01 T00510021  RH  081%=      5-min Rain = 0
KSW1 061338Z 01009KT 05/02 A3029 RMK A01 T00520021  RH  081%=      5-min Rain = 0
KSW1 061339Z 01010KT 05/02 A3029 RMK A01 T00530022  RH  080%=      5-min Rain = 0
KSW1 061340Z 01009KT 05/02 A3029 RMK A01 T00530021  RH  080%=      5-min Rain = 0
KSW1 061341Z 01010KT 05/02 A3029 RMK A01 T00540021  RH  080%=      5-min Rain = 0
KSW1 061342Z 01009KT 05/02 A3029 RMK A01 T00540022  RH  080%=      5-min Rain = 0
KSW1 061343Z 01009KT 05/02 A3029 RMK A01 T00540021  RH  080%=      5-min Rain = 0
KSW1 061344Z 01009KT 05/02 A3029 RMK A01 T00540022  RH  080%=      5-min Rain = 0
KSW1 061345Z 01009KT 05/02 A3029 RMK A01 T00540022  RH  079%=      5-min Rain = 0
KSW1 061346Z 01008KT 05/02 A3029 RMK A01 T00540022  RH  079%=      5-min Rain = 0
KSW1 061347Z 01008KT 06/02 A3029 RMK A01 T00550022  RH  079%=      5-min Rain = 0
KSW1 061348Z 01008KT 06/02 A3029 RMK A01 T00550022  RH  079%=      5-min Rain = 0
KSW1 061349Z 01008KT 06/02 A3029 RMK A01 T00550022  RH  079%=      5-min Rain = 0
KSW1 061350Z 01007KT 06/02 A303 RMK A01 T00550022  RH  079%=      5-min Rain = 0
KSW1 061351Z 01008KT 06/02 A303 RMK A01 T00550022  RH  079%=      5-min Rain = 0
KSW1 061352Z 01008KT 06/02 A303 RMK A01 T00560022  RH  079%=      5-min Rain = 0
KSW1 061353Z 00008KT 06/02 A303 RMK A01 T00560021  RH  079%=      5-min Rain = 0
KSW1 061354Z 01008KT 06/02 A303 RMK A01 T00560022  RH  079%=      5-min Rain = 0
KSW1 061355Z 01009KT 06/02 A303 RMK A01 T00560021  RH  079%=      5-min Rain = 0
KSW1 061356Z 00009KT 06/02 A303 RMK A01 T00560021  RH  078%=      5-min Rain = 0
KSW1 061357Z 00009KT 06/02 A303 RMK A01 T00560021  RH  078%=      5-min Rain = 0
KSW1 061358Z 00008KT 06/02 A303 RMK A01 T00570022  RH  078%=      5-min Rain = 0
KSW1 061359Z 36009KT 06/02 A303 RMK A01 T00570022  RH  078%=      5-min Rain = 0
KSW1 061400Z 36009KT 06/02 A303 RMK A01 T00580022  RH  078%=      5-min Rain = 0
KSW1 061401Z 36009KT 06/02 A303 RMK A01 T00580022  RH  077%=      5-min Rain = 0
KSW1 061402Z 36008KT 06/02 A303 RMK A01 T00590022  RH  077%=      5-min Rain = 0
KSW1 061403Z 35008KT 06/02 A303 RMK A01 T00600022  RH  077%=      5-min Rain = 0
KSW1 061404Z 36010KT 06/02 A303 RMK A01 T00600022  RH  077%=      5-min Rain = 0
KSW1 061405Z 36009KT 06/02 A303 RMK A01 T00610022  RH  076%=      5-min Rain = 0
KSW1 061406Z 35008KT 06/02 A303 RMK A01 T00620023  RH  076%=      5-min Rain = 0
KSW1 061407Z 36008KT 06/02 A303 RMK A01 T00620022  RH  076%=      5-min Rain = 0
KSW1 061408Z 36009KT 06/02 A303 RMK A01 T00630022  RH  075%=      5-min Rain = 0
KSW1 061409Z 36008KT 06/02 A303 RMK A01 T00630022  RH  075%=      5-min Rain = 0
KSW1 061410Z 36009KT 06/02 A3031 RMK A01 T00630022  RH  075%=      5-min Rain = 0
KSW1 061411Z 36009KT 06/02 A3031 RMK A01 T00640022  RH  074%=      5-min Rain = 0
KSW1 061412Z 00009KT 07/02 A3031 RMK A01 T00650022  RH  074%=      5-min Rain = 0
KSW1 061413Z 00010KT 07/02 A3031 RMK A01 T00660022  RH  074%=      5-min Rain = 0
KSW1 061414Z 00010KT 07/02 A3031 RMK A01 T00660022  RH  073%=      5-min Rain = 0
KSW1 061415Z 00010KT 07/02 A3031 RMK A01 T00670022  RH  073%=      5-min Rain = 0
KSW1 061416Z 36008KT 07/02 A3031 RMK A01 T00680022  RH  073%=      5-min Rain = 0
KSW1 061417Z 36009KT 07/02 A3031 RMK A01 T00680022  RH  073%=      5-min Rain = 0
KSW1 061418Z 36010KT 07/02 A3031 RMK A01 T00690022  RH  072%=      5-min Rain = 0
KSW1 061419Z 36008KT 07/02 A3031 RMK A01 T00690022  RH  072%=      5-min Rain = 0
KSW1 061420Z 35008KT 07/02 A3031 RMK A01 T00700022  RH  071%=      5-min Rain = 0
KSW1 061421Z 00010KT 07/02 A3031 RMK A01 T00710022  RH  071%=      5-min Rain = 0
KSW1 061422Z 36010KT 07/02 A3031 RMK A01 T00710022  RH  071%=      5-min Rain = 0
KSW1 061423Z 36010KT 07/02 A3031 RMK A01 T00710022  RH  071%=      5-min Rain = 0
KSW1 061424Z 36009KT 07/02 A3031 RMK A01 T00720021  RH  070%=      5-min Rain = 0
KSW1 061425Z 36009KT 07/02 A3031 RMK A01 T00730022  RH  070%=      5-min Rain = 0
KSW1 061426Z 36009KT 07/02 A3031 RMK A01 T00730022  RH  070%=      5-min Rain = 0
KSW1 061427Z 00011KT 07/02 A3031 RMK A01 T00740022  RH  070%=      5-min Rain = 0
KSW1 061428Z 00010KT 07/02 A3031 RMK A01 T00740021  RH  069%=      5-min Rain = 0
KSW1 061429Z 00011KT 07/02 A3031 RMK A01 T00740022  RH  069%=      5-min Rain = 0
KSW1 061430Z 00012KT 08/02 A3031 RMK A01 T00750021  RH  069%=      5-min Rain = 0
KSW1 061431Z 00012KT 08/02 A3031 RMK A01 T00760021  RH  068%=      5-min Rain = 0
KSW1 061432Z 00013KT 08/02 A3031 RMK A01 T00760021  RH  068%=      5-min Rain = 0
KSW1 061433Z 00014KT 08/02 A3031 RMK A01 T00770020  RH  067%=      5-min Rain = 0
KSW1 061434Z 00013KT 08/02 A3031 RMK A01 T00770019  RH  067%=      5-min Rain = 0
KSW1 061435Z 00014KT 08/02 A3031 RMK A01 T00770020  RH  067%=      5-min Rain = 0
KSW1 061436Z 01012KT 08/02 A3031 RMK A01 T00780020  RH  067%=      5-min Rain = 0
KSW1 061437Z 00011KT 08/02 A3031 RMK A01 T00780020  RH  067%=      5-min Rain = 0
KSW1 061438Z 00013KT 08/02 A3031 RMK A01 T00780021  RH  067%=      5-min Rain = 0
KSW1 061439Z 36013KT 08/02 A3031 RMK A01 T00790021  RH  067%=      5-min Rain = 0
KSW1 061440Z 00016KT 08/02 A3031 RMK A01 T00790020  RH  066%=      5-min Rain = 0
KSW1 061441Z 01012KT 08/02 A3031 RMK A01 T00790020  RH  066%=      5-min Rain = 0
KSW1 061442Z 01012G17KT 08/02 A3031 RMK A01 T00800021  RH  066%=      5-min Rain = 0
KSW1 061443Z 01012KT 08/02 A3031 RMK A01 T00800021  RH  066%=      5-min Rain = 0
KSW1 061444Z 01013KT 08/02 A3031 RMK A01 T00800021  RH  066%=      5-min Rain = 0
KSW1 061445Z 01013KT 08/02 A3031 RMK A01 T00800020  RH  066%=      5-min Rain = 0
KSW1 061446Z 01014KT 08/02 A3031 RMK A01 T00810020  RH  066%=      5-min Rain = 0
KSW1 061447Z 01015KT 08/02 A3031 RMK A01 T00810020  RH  065%=      5-min Rain = 0
KSW1 061448Z 01013KT 08/02 A3031 RMK A01 T00810019  RH  065%=      5-min Rain = 0
KSW1 061449Z 01013KT 08/02 A3032 RMK A01 T00810021  RH  066%=      5-min Rain = 0
KSW1 061450Z 01012KT 08/02 A3032 RMK A01 T00810021  RH  066%=      5-min Rain = 0
KSW1 061451Z 01013KT 08/02 A3032 RMK A01 T00810021  RH  066%=      5-min Rain = 0
KSW1 061452Z 01014KT 08/02 A3032 RMK A01 T00810020  RH  065%=      5-min Rain = 0
KSW1 061453Z 01012KT 08/02 A3032 RMK A01 T00810021  RH  066%=      5-min Rain = 0
KSW1 061454Z 01013KT 08/02 A3032 RMK A01 T00810021  RH  066%=      5-min Rain = 0
KSW1 061455Z 01011KT 08/02 A3032 RMK A01 T00810021  RH  066%=      5-min Rain = 0
KSW1 061456Z 01011KT 08/02 A3032 RMK A01 T00820021  RH  065%=      5-min Rain = 0
KSW1 061457Z 36013KT 08/02 A3032 RMK A01 T00820022  RH  066%=      5-min Rain = 0
KSW1 061458Z 01011G16KT 08/02 A3032 RMK A01 T00830021  RH  065%=      5-min Rain = 0
KSW1 061459Z 36009KT 08/02 A3032 RMK A01 T00830022  RH  065%=      5-min Rain = 0
KSW1 061500Z 01013KT 08/02 A3032 RMK A01 T00840021  RH  065%=      5-min Rain = 0
KSW1 061501Z 01012KT 08/02 A3032 RMK A01 T00840020  RH  064%=      5-min Rain = 0
KSW1 061502Z 01012KT 08/02 A3032 RMK A01 T00840021  RH  065%=      5-min Rain = 0
KSW1 061503Z 01010KT 08/02 A3032 RMK A01 T00840021  RH  065%=      5-min Rain = 0
KSW1 061504Z 01009KT 09/02 A3032 RMK A01 T00850022  RH  065%=      5-min Rain = 0
KSW1 061505Z 00012KT 09/02 A3033 RMK A01 T00860022  RH  064%=      5-min Rain = 0
KSW1 061506Z 36011KT 09/02 A3033 RMK A01 T00860021  RH  064%=      5-min Rain = 0
KSW1 061507Z 01011G16KT 09/02 A3033 RMK A01 T00860021  RH  064%=      5-min Rain = 0
KSW1 061508Z 01013KT 09/02 A3033 RMK A01 T00860020  RH  063%=      5-min Rain = 0
KSW1 061509Z 01012G18KT 09/02 A3033 RMK A01 T00860020  RH  064%=      5-min Rain = 0
KSW1 061510Z 01013KT 09/02 A3033 RMK A01 T00860019  RH  063%=      5-min Rain = 0
KSW1 061511Z 01011KT 09/02 A3033 RMK A01 T00860019  RH  063%=      5-min Rain = 0
KSW1 061512Z 01009KT 09/02 A3033 RMK A01 T00870022  RH  064%=      5-min Rain = 0
KSW1 061513Z 01010KT 09/02 A3033 RMK A01 T00880023  RH  064%=      5-min Rain = 0
KSW1 061514Z 01012KT 09/02 A3033 RMK A01 T00900020  RH  062%=      5-min Rain = 0
KSW1 061515Z 01013KT 09/02 A3033 RMK A01 T00900019  RH  061%=      5-min Rain = 0
KSW1 061516Z 01012KT 09/02 A3033 RMK A01 T00890018  RH  061%=      5-min Rain = 0
KSW1 061517Z 01013KT 09/02 A3033 RMK A01 T00890019  RH  062%=      5-min Rain = 0
KSW1 061518Z 01015KT 09/02 A3033 RMK A01 T00890018  RH  061%=      5-min Rain = 0
KSW1 061519Z 01011KT 09/02 A3033 RMK A01 T00880018  RH  061%=      5-min Rain = 0
KSW1 061520Z 02012KT 09/02 A3034 RMK A01 T00880019  RH  062%=      5-min Rain = 0
KSW1 061521Z 02013KT 09/02 A3034 RMK A01 T00900019  RH  061%=      5-min Rain = 0
KSW1 061522Z 02009KT 09/02 A3034 RMK A01 T00910019  RH  061%=      5-min Rain = 0
KSW1 061523Z 01011KT 09/02 A3034 RMK A01 T00920020  RH  061%=      5-min Rain = 0
KSW1 061524Z 01013G18KT 09/02 A3034 RMK A01 T00930019  RH  060%=      5-min Rain = 0
KSW1 061525Z 01013KT 09/02 A3034 RMK A01 T00930018  RH  059%=      5-min Rain = 0
KSW1 061526Z 01012KT 09/02 A3034 RMK A01 T00930018  RH  059%=      5-min Rain = 0
KSW1 061527Z 01013KT 09/02 A3034 RMK A01 T00920018  RH  060%=      5-min Rain = 0
KSW1 061528Z 01012KT 09/02 A3034 RMK A01 T00920018  RH  060%=      5-min Rain = 0
KSW1 061529Z 01009G14KT 09/02 A3034 RMK A01 T00920018  RH  060%=      5-min Rain = 0
KSW1 061530Z 00009G14KT 09/02 A3034 RMK A01 T00940019  RH  060%=      5-min Rain = 0
KSW1 061531Z 01012KT 10/02 A3034 RMK A01 T00950018  RH  059%=      5-min Rain = 0
KSW1 061532Z 00011KT 09/02 A3035 RMK A01 T00940018  RH  059%=      5-min Rain = 0
KSW1 061533Z 01012KT 09/02 A3035 RMK A01 T00940017  RH  059%=      5-min Rain = 0
KSW1 061534Z 01012KT 09/02 A3035 RMK A01 T00930017  RH  059%=      5-min Rain = 0
KSW1 061535Z 00011KT 09/02 A3035 RMK A01 T00930016  RH  059%=      5-min Rain = 0
KSW1 061536Z 01011KT 09/02 A3035 RMK A01 T00920016  RH  059%=      5-min Rain = 0
KSW1 061537Z 00011G16KT 09/02 A3035 RMK A01 T00930017  RH  059%=      5-min Rain = 0
KSW1 061538Z 01011KT 09/02 A3035 RMK A01 T00930017  RH  059%=      5-min Rain = 0
KSW1 061539Z 02011KT 09/02 A3035 RMK A01 T00940017  RH  058%=      5-min Rain = 0
KSW1 061540Z 02009KT 10/02 A3035 RMK A01 T00950018  RH  059%=      5-min Rain = 0
KSW1 061541Z 02012KT 10/02 A3035 RMK A01 T00980019  RH  058%=      5-min Rain = 0
KSW1 061542Z 02013KT 10/02 A3035 RMK A01 T00980016  RH  057%=      5-min Rain = 0
KSW1 061543Z 02014KT 10/02 A3035 RMK A01 T00960015  RH  057%=      5-min Rain = 0
KSW1 061544Z 01013KT 10/02 A3035 RMK A01 T00960015  RH  057%=      5-min Rain = 0
KSW1 061545Z 01011KT 10/02 A3035 RMK A01 T00960015  RH  057%=      5-min Rain = 0
KSW1 061546Z 03011KT 10/02 A3035 RMK A01 T00970017  RH  058%=      5-min Rain = 0
KSW1 061547Z 03013KT 10/02 A3035 RMK A01 T00990016  RH  056%=      5-min Rain = 0
KSW1 061548Z 03015KT 10/02 A3035 RMK A01 T00990016  RH  056%=      5-min Rain = 0
KSW1 061549Z 02014KT 10/02 A3035 RMK A01 T00970015  RH  057%=      5-min Rain = 0
KSW1 061550Z 03013KT 10/02 A3035 RMK A01 T00970016  RH  057%=      5-min Rain = 0
KSW1 061551Z 03014KT 10/02 A3035 RMK A01 T00980016  RH  057%=      5-min Rain = 0
KSW1 061552Z 03012KT 10/02 A3035 RMK A01 T00990017  RH  057%=      5-min Rain = 0
KSW1 061553Z 03011KT 10/02 A3035 RMK A01 T01000018  RH  056%=      5-min Rain = 0
KSW1 061554Z 04013KT 10/02 A3035 RMK A01 T01010016  RH  056%=      5-min Rain = 0
KSW1 061555Z 03015KT 10/02 A3036 RMK A01 T01000016  RH  056%=      5-min Rain = 0
KSW1 061556Z 03014KT 10/02 A3036 RMK A01 T00990015  RH  056%=      5-min Rain = 0
KSW1 061557Z 03014KT 10/02 A3036 RMK A01 T00990016  RH  056%=      5-min Rain = 0
KSW1 061558Z 02014KT 10/02 A3036 RMK A01 T00990015  RH  056%=      5-min Rain = 0
KSW1 061559Z 02011KT 10/02 A3036 RMK A01 T01000016  RH  056%=      5-min Rain = 0
KSW1 061600Z 01013KT 10/02 A3036 RMK A01 T01000016  RH  056%=      5-min Rain = 0
KSW1 061601Z 02013KT 10/02 A3036 RMK A01 T01000015  RH  056%=      5-min Rain = 0
KSW1 061602Z 02010KT 10/02 A3036 RMK A01 T01000017  RH  056%=      5-min Rain = 0
KSW1 061603Z 02013KT 10/02 A3036 RMK A01 T01020017  RH  055%=      5-min Rain = 0
KSW1 061604Z 02010KT 10/02 A3036 RMK A01 T01020016  RH  055%=      5-min Rain = 0
KSW1 061605Z 02011KT 10/02 A3036 RMK A01 T01030017  RH  055%=      5-min Rain = 0
KSW1 061606Z 02011KT 10/02 A3036 RMK A01 T01040018  RH  055%=      5-min Rain = 0
KSW1 061607Z 01011KT 11/02 A3036 RMK A01 T01050018  RH  055%=      5-min Rain = 0
KSW1 061608Z 01012KT 11/02 A3036 RMK A01 T01050017  RH  054%=      5-min Rain = 0
KSW1 061609Z 01012KT 11/02 A3036 RMK A01 T01050016  RH  054%=      5-min Rain = 0
KSW1 061610Z 00010KT 10/02 A3036 RMK A01 T01040017  RH  055%=      5-min Rain = 0
KSW1 061611Z 01013KT 11/02 A3036 RMK A01 T01060017  RH  054%=      5-min Rain = 0
KSW1 061612Z 02015KT 11/02 A3036 RMK A01 T01050016  RH  054%=      5-min Rain = 0
KSW1 061613Z 01014KT 10/02 A3036 RMK A01 T01040015  RH  054%=      5-min Rain = 0
KSW1 061614Z 02011KT 10/02 A3036 RMK A01 T01040017  RH  055%=      5-min Rain = 0
KSW1 061615Z 02011KT 10/02 A3036 RMK A01 T01040017  RH  055%=      5-min Rain = 0
KSW1 061616Z 01013KT 11/02 A3036 RMK A01 T01050017  RH  055%=      5-min Rain = 0
KSW1 061617Z 01015KT 11/02 A3036 RMK A01 T01060016  RH  054%=      5-min Rain = 0
KSW1 061618Z 02013KT 10/02 A3036 RMK A01 T01040016  RH  054%=      5-min Rain = 0
KSW1 061619Z 02014KT 10/02 A3036 RMK A01 T01030016  RH  055%=      5-min Rain = 0
KSW1 061620Z 02010KT 10/02 A3036 RMK A01 T01030017  RH  055%=      5-min Rain = 0
KSW1 061621Z 01012KT 11/02 A3036 RMK A01 T01050018  RH  055%=      5-min Rain = 0
KSW1 061622Z 01011KT 11/02 A3036 RMK A01 T01070019  RH  055%=      5-min Rain = 0
KSW1 061623Z 01010KT 11/02 A3036 RMK A01 T01080019  RH  054%=      5-min Rain = 0
KSW1 061624Z 03012KT 11/02 A3036 RMK A01 T01090019  RH  054%=      5-min Rain = 0
KSW1 061625Z 03011KT 11/02 A3036 RMK A01 T01100018  RH  053%=      5-min Rain = 0
KSW1 061626Z 03013KT 11/02 A3036 RMK A01 T01090019  RH  054%=      5-min Rain = 0
KSW1 061627Z 02015KT 11/02 A3036 RMK A01 T01090017  RH  053%=      5-min Rain = 0
KSW1 061628Z 02014KT 11/02 A3036 RMK A01 T01060016  RH  054%=      5-min Rain = 0
KSW1 061629Z 03013KT 11/02 A3036 RMK A01 T01050018  RH  055%=      5-min Rain = 0
KSW1 061630Z 03013KT 11/02 A3036 RMK A01 T01060018  RH  054%=      5-min Rain = 0
KSW1 061631Z 02012KT 11/02 A3036 RMK A01 T01070018  RH  054%=      5-min Rain = 0
KSW1 061632Z 01013KT 11/02 A3036 RMK A01 T01090018  RH  054%=      5-min Rain = 0
KSW1 061633Z 02015KT 11/02 A3036 RMK A01 T01080017  RH  054%=      5-min Rain = 0
KSW1 061634Z 02015KT 11/02 A3036 RMK A01 T01060017  RH  054%=      5-min Rain = 0
KSW1 061635Z 02015KT 11/02 A3036 RMK A01 T01060017  RH  054%=      5-min Rain = 0
KSW1 061636Z 02014KT 11/02 A3036 RMK A01 T01060017  RH  054%=      5-min Rain = 0
KSW1 061637Z 02010KT 11/02 A3036 RMK A01 T01060018  RH  055%=      5-min Rain = 0
KSW1 061638Z 03013KT 11/02 A3036 RMK A01 T01080020  RH  054%=      5-min Rain = 0
KSW1 061639Z 02014KT 11/02 A3036 RMK A01 T01100019  RH  053%=      5-min Rain = 0
KSW1 061640Z 02012KT 11/02 A3036 RMK A01 T01090018  RH  054%=      5-min Rain = 0
KSW1 061641Z 04013KT 11/02 A3036 RMK A01 T01090019  RH  054%=      5-min Rain = 0
KSW1 061642Z 03011KT 11/02 A3036 RMK A01 T01110019  RH  053%=      5-min Rain = 0
KSW1 061643Z 01011G16KT 11/02 A3036 RMK A01 T01130022  RH  053%=      5-min Rain = 0
KSW1 061644Z 02013KT 12/02 A3036 RMK A01 T01150020  RH  052%=      5-min Rain = 0
KSW1 061645Z 01013KT 11/02 A3036 RMK A01 T01140019  RH  052%=      5-min Rain = 0
KSW1 061646Z 01012KT 11/02 A3036 RMK A01 T01110017  RH  052%=      5-min Rain = 0
KSW1 061647Z 01012KT 11/02 A3036 RMK A01 T01100019  RH  053%=      5-min Rain = 0
KSW1 061648Z 00011KT 11/02 A3036 RMK A01 T01110018  RH  053%=      5-min Rain = 0
KSW1 061649Z 02011KT 11/02 A3036 RMK A01 T01110019  RH  053%=      5-min Rain = 0
KSW1 061650Z 01014KT 11/02 A3036 RMK A01 T01120017  RH  052%=      5-min Rain = 0
KSW1 061651Z 01013KT 11/02 A3036 RMK A01 T01110017  RH  053%=      5-min Rain = 0
KSW1 061652Z 02013KT 11/02 A3036 RMK A01 T01100016  RH  052%=      5-min Rain = 0
KSW1 061653Z 02012KT 11/02 A3036 RMK A01 T01070016  RH  053%=      5-min Rain = 0
KSW1 061654Z 01013KT 11/02 A3036 RMK A01 T01070016  RH  054%=      5-min Rain = 0
KSW1 061655Z 02012KT 11/02 A3036 RMK A01 T01070017  RH  054%=      5-min Rain = 0
KSW1 061656Z 03014KT 11/02 A3036 RMK A01 T01080017  RH  053%=      5-min Rain = 0
KSW1 061657Z 03013KT 11/02 A3036 RMK A01 T01080017  RH  053%=      5-min Rain = 0
KSW1 061658Z 01011KT 11/02 A3036 RMK A01 T01080017  RH  054%=      5-min Rain = 0
KSW1 061659Z 01015KT 11/02 A3036 RMK A01 T01080017  RH  053%=      5-min Rain = 0
KSW1 061700Z 02013KT 11/02 A3036 RMK A01 T01060016  RH  054%=      5-min Rain = 0
KSW1 061701Z 01011KT 11/02 A3036 RMK A01 T01060017  RH  054%=      5-min Rain = 0
KSW1 061702Z 01013KT 11/02 A3036 RMK A01 T01060017  RH  054%=      5-min Rain = 0
KSW1 061703Z 01012KT 11/02 A3036 RMK A01 T01070017  RH  054%=      5-min Rain = 0
KSW1 061704Z 01011KT 11/02 A3036 RMK A01 T01070017  RH  054%=      5-min Rain = 0
KSW1 061705Z 01012KT 11/02 A3035 RMK A01 T01090018  RH  054%=      5-min Rain = 0
KSW1 061706Z 02015KT 11/02 A3036 RMK A01 T01090017  RH  053%=      5-min Rain = 0
KSW1 061707Z 03013KT 11/02 A3036 RMK A01 T01070015  RH  053%=      5-min Rain = 0
KSW1 061708Z 02014KT 11/02 A3035 RMK A01 T01070017  RH  054%=      5-min Rain = 0
KSW1 061709Z 02014KT 11/02 A3036 RMK A01 T01090018  RH  053%=      5-min Rain = 0
KSW1 061710Z 02013KT 11/02 A3035 RMK A01 T01090018  RH  053%=      5-min Rain = 0
KSW1 061711Z 01012KT 11/02 A3035 RMK A01 T01090018  RH  053%=      5-min Rain = 0
KSW1 061712Z 01011G16KT 11/02 A3035 RMK A01 T01110020  RH  054%=      5-min Rain = 0
KSW1 061713Z 01013KT 11/02 A3035 RMK A01 T01130019  RH  053%=      5-min Rain = 0
KSW1 061714Z 02010KT 11/02 A3035 RMK A01 T01130020  RH  053%=      5-min Rain = 0
KSW1 061715Z 01009KT 12/02 A3035 RMK A01 T01150023  RH  053%=      5-min Rain = 0
KSW1 061716Z 02012KT 12/02 A3035 RMK A01 T01180023  RH  052%=      5-min Rain = 0
KSW1 061717Z 01011KT 12/02 A3035 RMK A01 T01180019  RH  051%=      5-min Rain = 0
KSW1 061718Z 02012KT 12/02 A3035 RMK A01 T01160020  RH  052%=      5-min Rain = 0
KSW1 061719Z 01014KT 12/02 A3035 RMK A01 T01160020  RH  052%=      5-min Rain = 0
KSW1 061720Z 02014KT 12/02 A3035 RMK A01 T01160020  RH  052%=      5-min Rain = 0
KSW1 061721Z 02014KT 12/02 A3035 RMK A01 T01160018  RH  051%=      5-min Rain = 0
KSW1 061722Z 03013KT 11/02 A3035 RMK A01 T01130019  RH  053%=      5-min Rain = 0
KSW1 061723Z 03013KT 12/02 A3035 RMK A01 T01150020  RH  052%=      5-min Rain = 0
KSW1 061724Z 02013KT 12/02 A3035 RMK A01 T01160020  RH  052%=      5-min Rain = 0
KSW1 061725Z 03013KT 12/02 A3035 RMK A01 T01160020  RH  052%=      5-min Rain = 0
KSW1 061726Z 03013KT 12/02 A3035 RMK A01 T01170020  RH  052%=      5-min Rain = 0
KSW1 061727Z 02013KT 12/02 A3035 RMK A01 T01170021  RH  052%=      5-min Rain = 0
KSW1 061728Z 03014KT 12/02 A3035 RMK A01 T01190020  RH  051%=      5-min Rain = 0
KSW1 061729Z 04012G17KT 12/02 A3035 RMK A01 T01180019  RH  051%=      5-min Rain = 0
KSW1 061730Z 03012KT 12/02 A3035 RMK A01 T01170020  RH  051%=      5-min Rain = 0
KSW1 061731Z 04011KT 12/02 A3035 RMK A01 T01170020  RH  051%=      5-min Rain = 0
KSW1 061732Z 04012KT 12/02 A3035 RMK A01 T01170021  RH  052%=      5-min Rain = 0
KSW1 061733Z 04011KT 12/02 A3035 RMK A01 T01180021  RH  051%=      5-min Rain = 0
KSW1 061734Z 03011KT 12/02 A3035 RMK A01 T01190021  RH  051%=      5-min Rain = 0
KSW1 061735Z 03010KT 12/02 A3035 RMK A01 T01200022  RH  051%=      5-min Rain = 0
KSW1 061736Z 04010KT 12/02 A3035 RMK A01 T01210022  RH  051%=      5-min Rain = 0
KSW1 061737Z 03009KT 12/02 A3035 RMK A01 T01220022  RH  051%=      5-min Rain = 0
KSW1 061738Z 02009KT 12/02 A3035 RMK A01 T01220021  RH  050%=      5-min Rain = 0
KSW1 061739Z 02010KT 12/02 A3035 RMK A01 T01220021  RH  050%=      5-min Rain = 0
KSW1 061740Z 03009KT 12/02 A3035 RMK A01 T01210021  RH  050%=      5-min Rain = 0
KSW1 061741Z 04009KT 12/02 A3035 RMK A01 T01230023  RH  050%=      5-min Rain = 0
KSW1 061742Z 04009G14KT 13/02 A3035 RMK A01 T01250022  RH  050%=      5-min Rain = 0
KSW1 061743Z 04010KT 13/02 A3035 RMK A01 T01260021  RH  049%=      5-min Rain = 0
KSW1 061744Z 03011KT 12/02 A3035 RMK A01 T01230020  RH  049%=      5-min Rain = 0
KSW1 061745Z 03010KT 12/02 A3035 RMK A01 T01220022  RH  050%=      5-min Rain = 0
KSW1 061746Z 04010KT 12/02 A3035 RMK A01 T01220020  RH  050%=      5-min Rain = 0
KSW1 061747Z 04011KT 12/02 A3035 RMK A01 T01210021  RH  050%=      5-min Rain = 0
KSW1 061748Z 03011KT 12/02 A3035 RMK A01 T01230022  RH  050%=      5-min Rain = 0
KSW1 061749Z 02013KT 12/02 A3035 RMK A01 T01240021  RH  049%=      5-min Rain = 0
KSW1 061750Z 04011KT 12/02 A3034 RMK A01 T01240020  RH  049%=      5-min Rain = 0
KSW1 061751Z 03010KT 12/02 A3034 RMK A01 T01220019  RH  049%=      5-min Rain = 0
KSW1 061752Z 03011KT 12/02 A3034 RMK A01 T01210021  RH  050%=      5-min Rain = 0
KSW1 061753Z 02011KT 12/02 A3034 RMK A01 T01220021  RH  050%=      5-min Rain = 0
KSW1 061754Z 01008KT 12/02 A3034 RMK A01 T01220020  RH  050%=      5-min Rain = 0
KSW1 061755Z 04007KT 12/02 A3034 RMK A01 T01230023  RH  051%=      5-min Rain = 0
KSW1 061756Z 03008KT 13/02 A3034 RMK A01 T01250022  RH  049%=      5-min Rain = 0
KSW1 061757Z 03007KT 13/02 A3034 RMK A01 T01250023  RH  050%=      5-min Rain = 0
KSW1 061758Z 04008KT 13/02 A3034 RMK A01 T01270024  RH  049%=      5-min Rain = 0
KSW1 061759Z 05008KT 13/02 A3034 RMK A01 T01290024  RH  049%=      5-min Rain = 0
KSW1 061800Z 04009KT 13/03 A3034 RMK A01 T01330026  RH  048%=      5-min Rain = 0
KSW1 061801Z 04009KT 13/02 A3034 RMK A01 T01320022  RH  047%=      5-min Rain = 0
KSW1 061802Z 04009KT 13/02 A3034 RMK A01 T01290020  RH  047%=      5-min Rain = 0
KSW1 061803Z 03010KT 13/02 A3034 RMK A01 T01250020  RH  049%=      5-min Rain = 0
KSW1 061804Z 02010KT 13/02 A3034 RMK A01 T01250020  RH  048%=      5-min Rain = 0
KSW1 061805Z 02009KT 12/02 A3034 RMK A01 T01240020  RH  049%=      5-min Rain = 0
KSW1 061806Z 04008KT 12/02 A3034 RMK A01 T01230019  RH  049%=      5-min Rain = 0
KSW1 061807Z 05008KT 12/02 A3034 RMK A01 T01220020  RH  050%=      5-min Rain = 0
KSW1 061808Z 05008KT 12/02 A3034 RMK A01 T01240022  RH  050%=      5-min Rain = 0
KSW1 061809Z 03011KT 13/02 A3034 RMK A01 T01280023  RH  049%=      5-min Rain = 0
KSW1 061810Z 02009KT 13/02 A3034 RMK A01 T01290020  RH  047%=      5-min Rain = 0
KSW1 061811Z 02008KT 13/02 A3034 RMK A01 T01280020  RH  048%=      5-min Rain = 0
KSW1 061812Z 03009KT 13/02 A3034 RMK A01 T01250018  RH  048%=      5-min Rain = 0
KSW1 061813Z 02008KT 13/02 A3034 RMK A01 T01260020  RH  049%=      5-min Rain = 0
KSW1 061814Z 03007KT 13/02 A3034 RMK A01 T01250019  RH  048%=      5-min Rain = 0
KSW1 061815Z 01008KT 12/02 A3034 RMK A01 T01240020  RH  049%=      5-min Rain = 0
KSW1 061816Z 00008KT 13/02 A3034 RMK A01 T01250021  RH  049%=      5-min Rain = 0
KSW1 061817Z 02007KT 13/02 A3034 RMK A01 T01270021  RH  049%=      5-min Rain = 0
KSW1 061818Z 03006KT 13/02 A3034 RMK A01 T01290023  RH  048%=      5-min Rain = 0
KSW1 061819Z 01008KT 13/02 A3034 RMK A01 T01320023  RH  048%=      5-min Rain = 0
KSW1 061820Z 00008KT 13/02 A3034 RMK A01 T01310021  RH  047%=      5-min Rain = 0
KSW1 061821Z 01005KT 13/02 A3034 RMK A01 T01280018  RH  047%=      5-min Rain = 0
KSW1 061822Z 03004KT 13/02 A3034 RMK A01 T01250020  RH  049%=      5-min Rain = 0
KSW1 061823Z 03003KT 13/02 A3034 RMK A01 T01260019  RH  048%=      5-min Rain = 0
KSW1 061824Z 34006KT 13/02 A3034 RMK A01 T01260021  RH  049%=      5-min Rain = 0
KSW1 061825Z 36007KT 13/02 A3034 RMK A01 T01280021  RH  048%=      5-min Rain = 0
KSW1 061826Z 01006KT 13/02 A3034 RMK A01 T01280020  RH  048%=      5-min Rain = 0
KSW1 061827Z 00005KT 13/02 A3034 RMK A01 T01290023  RH  048%=      5-min Rain = 0
KSW1 061828Z 02007KT 13/03 A3034 RMK A01 T01340025  RH  047%=      5-min Rain = 0
KSW1 061829Z 02006KT 14/02 A3034 RMK A01 T01360023  RH  046%=      5-min Rain = 0
KSW1 061830Z 01006KT 14/02 A3034 RMK A01 T01370023  RH  046%=      5-min Rain = 0
KSW1 061831Z 34005KT 14/02 A3034 RMK A01 T01350020  RH  046%=      5-min Rain = 0
KSW1 061832Z 32004KT 13/02 A3034 RMK A01 T01320020  RH  047%=      5-min Rain = 0
KSW1 061833Z 35008KT 13/02 A3034 RMK A01 T01310022  RH  047%=      5-min Rain = 0
KSW1 061834Z 35007KT 13/02 A3034 RMK A01 T01330021  RH  047%=      5-min Rain = 0
KSW1 061835Z 34008KT 13/02 A3034 RMK A01 T01340024  RH  047%=      5-min Rain = 0
KSW1 061836Z 34005KT 14/02 A3034 RMK A01 T01350023  RH  046%=      5-min Rain = 0
KSW1 061837Z 36003KT 14/02 A3034 RMK A01 T01360023  RH  046%=      5-min Rain = 0
KSW1 061838Z 34005KT 14/02 A3034 RMK A01 T01360022  RH  046%=      5-min Rain = 0
KSW1 061839Z 01005KT 14/02 A3034 RMK A01 T01350022  RH  046%=      5-min Rain = 0
KSW1 061840Z 36008KT 14/02 A3034 RMK A01 T01350020  RH  046%=      5-min Rain = 0
KSW1 061841Z 36007KT 13/02 A3033 RMK A01 T01340020  RH  046%=      5-min Rain = 0
KSW1 061842Z 02004KT 13/02 A3034 RMK A01 T01310018  RH  046%=      5-min Rain = 0
KSW1 061843Z 35005KT 13/02 A3033 RMK A01 T01290019  RH  047%=      5-min Rain = 0
KSW1 061844Z 36003KT 13/02 A3033 RMK A01 T01280020  RH  047%=      5-min Rain = 0
KSW1 061845Z 33005KT 13/02 A3033 RMK A01 T01300023  RH  048%=      5-min Rain = 0
KSW1 061846Z 36007KT 13/02 A3033 RMK A01 T01330024  RH  047%=      5-min Rain = 0
KSW1 061847Z 35009KT 14/02 A3033 RMK A01 T01350023  RH  046%=      5-min Rain = 0
KSW1 061848Z 35007KT 14/02 A3033 RMK A01 T01350021  RH  046%=      5-min Rain = 0
KSW1 061849Z 35007KT 13/02 A3033 RMK A01 T01330020  RH  046%=      5-min Rain = 0
KSW1 061850Z 01006KT 13/02 A3033 RMK A01 T01340024  RH  047%=      5-min Rain = 0
KSW1 061851Z 04007KT 14/02 A3033 RMK A01 T01390024  RH  046%=      5-min Rain = 0
KSW1 061852Z 03005KT 14/02 A3033 RMK A01 T01400022  RH  045%=      5-min Rain = 0
KSW1 061853Z 02009KT 14/02 A3033 RMK A01 T01400022  RH  045%=      5-min Rain = 0
KSW1 061854Z 02006KT 14/02 A3033 RMK A01 T01390020  RH  044%=      5-min Rain = 0
KSW1 061855Z 01008KT 14/02 A3033 RMK A01 T01380022  RH  045%=      5-min Rain = 0
KSW1 061856Z 03007KT 14/02 A3033 RMK A01 T01370020  RH  045%=      5-min Rain = 0
KSW1 061857Z 04006KT 13/02 A3033 RMK A01 T01340019  RH  046%=      5-min Rain = 0
KSW1 061858Z 04003KT 13/02 A3033 RMK A01 T01330020  RH  046%=      5-min Rain = 0
KSW1 061859Z 03002KT 13/02 A3033 RMK A01 T01330020  RH  046%=      5-min Rain = 0
KSW1 061900Z 35004KT 13/02 A3033 RMK A01 T01330020  RH  046%=      5-min Rain = 0
KSW1 061901Z 35006KT 13/02 A3033 RMK A01 T01340020  RH  046%=      5-min Rain = 0
KSW1 061902Z 34005KT 13/02 A3033 RMK A01 T01340020  RH  046%=      5-min Rain = 0
KSW1 061903Z 01007KT 13/02 A3033 RMK A01 T01340022  RH  047%=      5-min Rain = 0
KSW1 061904Z 00007KT 14/02 A3033 RMK A01 T01360021  RH  046%=      5-min Rain = 0
KSW1 061905Z 36005KT 14/02 A3033 RMK A01 T01360020  RH  045%=      5-min Rain = 0
KSW1 061906Z 34004KT 14/02 A3033 RMK A01 T01350018  RH  045%=      5-min Rain = 0
KSW1 061907Z 36007KT 14/02 A3033 RMK A01 T01350020  RH  046%=      5-min Rain = 0
KSW1 061908Z 36007KT 14/02 A3033 RMK A01 T01360022  RH  046%=      5-min Rain = 0
KSW1 061909Z 01006KT 14/02 A3033 RMK A01 T01390021  RH  045%=      5-min Rain = 0
KSW1 061910Z 35007KT 14/02 A3033 RMK A01 T01400024  RH  045%=      5-min Rain = 0
KSW1 061911Z 34006KT 14/02 A3033 RMK A01 T01430022  RH  044%=      5-min Rain = 0
KSW1 061912Z 34004KT 14/02 A3033 RMK A01 T01410019  RH  043%=      5-min Rain = 0
KSW1 061913Z 34004KT 14/02 A3033 RMK A01 T01380019  RH  044%=      5-min Rain = 0
KSW1 061914Z 34003KT 14/02 A3033 RMK A01 T01360019  RH  045%=      5-min Rain = 0
KSW1 061915Z 01003KT 14/02 A3033 RMK A01 T01350020  RH  046%=      5-min Rain = 0
KSW1 061916Z 03007KT 14/02 A3033 RMK A01 T01360020  RH  045%=      5-min Rain = 0
KSW1 061917Z 03007KT 14/02 A3033 RMK A01 T01380019  RH  045%=      5-min Rain = 0
KSW1 061918Z 02007KT 14/02 A3033 RMK A01 T01390021  RH  045%=      5-min Rain = 0
KSW1 061919Z 04006KT 14/02 A3033 RMK A01 T01390020  RH  044%=      5-min Rain = 0
KSW1 061920Z 05005KT 14/02 A3033 RMK A01 T01400021  RH  045%=      5-min Rain = 0
KSW1 061921Z 07003KT 14/02 A3032 RMK A01 T01390020  RH  044%=      5-min Rain = 0
KSW1 061922Z 01003KT 14/02 A3032 RMK A01 T01380021  RH  045%=      5-min Rain = 0
KSW1 061923Z 36005KT 14/02 A3032 RMK A01 T01380019  RH  044%=      5-min Rain = 0
KSW1 061924Z 33008KT 14/02 A3032 RMK A01 T01400022  RH  045%=      5-min Rain = 0
KSW1 061925Z 33007KT 14/02 A3032 RMK A01 T01410021  RH  044%=      5-min Rain = 0
KSW1 061926Z 33005KT 14/02 A3032 RMK A01 T01380019  RH  044%=      5-min Rain = 0
KSW1 061927Z 34008KT 14/02 A3032 RMK A01 T01360020  RH  045%=      5-min Rain = 0
KSW1 061928Z 34007KT 14/02 A3032 RMK A01 T01370022  RH  046%=      5-min Rain = 0
KSW1 061929Z 35006KT 14/02 A3032 RMK A01 T01390023  RH  045%=      5-min Rain = 0
KSW1 061930Z 34005KT 14/02 A3032 RMK A01 T01400022  RH  045%=      5-min Rain = 0
KSW1 061931Z 34004KT 14/02 A3032 RMK A01 T01400022  RH  045%=      5-min Rain = 0
KSW1 061932Z 35007KT 14/02 A3032 RMK A01 T01400023  RH  045%=      5-min Rain = 0
KSW1 061933Z 35008KT 14/02 A3032 RMK A01 T01420023  RH  044%=      5-min Rain = 0
KSW1 061934Z 35007KT 14/02 A3032 RMK A01 T01410020  RH  044%=      5-min Rain = 0
KSW1 061935Z 01008KT 14/02 A3032 RMK A01 T01400022  RH  045%=      5-min Rain = 0
KSW1 061936Z 02007KT 14/02 A3032 RMK A01 T01440024  RH  044%=      5-min Rain = 0
KSW1 061937Z 02006KT 14/02 A3032 RMK A01 T01430020  RH  043%=      5-min Rain = 0
KSW1 061938Z 35005KT 14/02 A3031 RMK A01 T01410022  RH  044%=      5-min Rain = 0
KSW1 061939Z 35005KT 14/02 A3031 RMK A01 T01410020  RH  044%=      5-min Rain = 0
KSW1 061940Z 34008KT 14/02 A3031 RMK A01 T01420023  RH  044%=      5-min Rain = 0
KSW1 061941Z 33008KT 14/02 A3031 RMK A01 T01430022  RH  044%=      5-min Rain = 0
KSW1 061942Z 34010KT 14/02 A3031 RMK A01 T01430022  RH  044%=      5-min Rain = 0
KSW1 061943Z 36009KT 14/02 A3031 RMK A01 T01420021  RH  044%=      5-min Rain = 0
KSW1 061944Z 36009KT 14/02 A3031 RMK A01 T01410021  RH  044%=      5-min Rain = 0
KSW1 061945Z 35005KT 14/02 A3031 RMK A01 T01410021  RH  044%=      5-min Rain = 0
KSW1 061946Z 03004KT 14/02 A3031 RMK A01 T01400020  RH  044%=      5-min Rain = 0
KSW1 061947Z 36004KT 14/02 A3031 RMK A01 T01400021  RH  044%=      5-min Rain = 0
KSW1 061948Z 33004KT 14/02 A3031 RMK A01 T01400024  RH  045%=      5-min Rain = 0
KSW1 061949Z 36007KT 14/02 A3031 RMK A01 T01440024  RH  044%=      5-min Rain = 0
KSW1 061950Z 35008KT 15/02 A3031 RMK A01 T01460022  RH  043%=      5-min Rain = 0
KSW1 061951Z 00009KT 15/02 A3031 RMK A01 T01460021  RH  043%=      5-min Rain = 0
KSW1 061952Z 01006KT 14/02 A3031 RMK A01 T01440018  RH  042%=      5-min Rain = 0
KSW1 061953Z 36004KT 14/02 A3031 RMK A01 T01400019  RH  044%=      5-min Rain = 0
KSW1 061954Z 01006KT 14/02 A3031 RMK A01 T01400020  RH  044%=      5-min Rain = 0
KSW1 061955Z 02008KT 14/02 A3031 RMK A01 T01410020  RH  044%=      5-min Rain = 0
KSW1 061956Z 02008KT 14/02 A3031 RMK A01 T01420020  RH  044%=      5-min Rain = 0
KSW1 061957Z 02006KT 14/02 A3031 RMK A01 T01410019  RH  044%=      5-min Rain = 0
KSW1 061958Z 02003KT 14/02 A3031 RMK A01 T01420022  RH  044%=      5-min Rain = 0
KSW1 061959Z 33003KT 15/02 A3031 RMK A01 T01450022  RH  043%=      5-min Rain = 0
KSW1 062000Z 33002KT 15/02 A3031 RMK A01 T01450019  RH  042%=      5-min Rain = 0
KSW1 062001Z 34003KT 14/02 A3031 RMK A01 T01430021  RH  044%=      5-min Rain = 0
KSW1 062002Z 32005KT 15/02 A3031 RMK A01 T01450024  RH  044%=      5-min Rain = 0
KSW1 062003Z 34006KT 15/02 A3031 RMK A01 T01480024  RH  043%=      5-min Rain = 0
KSW1 062004Z 36006KT 15/02 A3031 RMK A01 T01480021  RH  042%=      5-min Rain = 0
KSW1 062005Z 34006KT 15/02 A303 RMK A01 T01460021  RH  043%=      5-min Rain = 0
KSW1 062006Z 35006KT 15/02 A303 RMK A01 T01460020  RH  042%=      5-min Rain = 0
KSW1 062007Z 34006KT 15/02 A303 RMK A01 T01450020  RH  043%=      5-min Rain = 0
KSW1 062008Z 03005KT 14/02 A303 RMK A01 T01440021  RH  043%=      5-min Rain = 0
KSW1 062009Z 00005KT 15/02 A303 RMK A01 T01460021  RH  043%=      5-min Rain = 0
KSW1 062010Z 35007KT 15/02 A303 RMK A01 T01470021  RH  043%=      5-min Rain = 0
KSW1 062011Z 32005KT 15/02 A303 RMK A01 T01450019  RH  042%=      5-min Rain = 0
KSW1 062012Z 34007KT 14/02 A303 RMK A01 T01440022  RH  044%=      5-min Rain = 0
KSW1 062013Z 32007KT 15/02 A303 RMK A01 T01460022  RH  043%=      5-min Rain = 0
KSW1 062014Z 34006KT 15/02 A303 RMK A01 T01460021  RH  043%=      5-min Rain = 0
KSW1 062015Z 34007KT 15/02 A303 RMK A01 T01450022  RH  043%=      5-min Rain = 0
KSW1 062016Z 01008KT 15/02 A303 RMK A01 T01460021  RH  043%=      5-min Rain = 0
KSW1 062017Z 01009KT 15/02 A303 RMK A01 T01470019  RH  042%=      5-min Rain = 0
KSW1 062018Z 01007KT 15/02 A303 RMK A01 T01460020  RH  042%=      5-min Rain = 0
KSW1 062019Z 01006KT 15/02 A303 RMK A01 T01460020  RH  042%=      5-min Rain = 0
KSW1 062020Z 03007KT 15/02 A303 RMK A01 T01460020  RH  042%=      5-min Rain = 0
KSW1 062021Z 02008KT 15/02 A303 RMK A01 T01460020  RH  043%=      5-min Rain = 0
KSW1 062022Z 01006KT 15/02 A303 RMK A01 T01450020  RH  043%=      5-min Rain = 0
KSW1 062023Z 00006KT 15/02 A303 RMK A01 T01460020  RH  043%=      5-min Rain = 0
KSW1 062024Z 00008KT 15/02 A303 RMK A01 T01460021  RH  043%=      5-min Rain = 0
KSW1 062025Z 35005KT 15/02 A303 RMK A01 T01460020  RH  042%=      5-min Rain = 0
KSW1 062026Z 35002KT 15/02 A303 RMK A01 T01460019  RH  042%=      5-min Rain = 0
KSW1 062027Z 01002KT 15/02 A303 RMK A01 T01460020  RH  043%=      5-min Rain = 0
KSW1 062028Z 33004KT 15/02 A303 RMK A01 T01460020  RH  042%=      5-min Rain = 0
KSW1 062029Z 34005KT 15/02 A303 RMK A01 T01470021  RH  043%=      5-min Rain = 0
KSW1 062030Z 35008KT 15/02 A303 RMK A01 T01490021  RH  042%=      5-min Rain = 0
KSW1 062031Z 00008KT 15/02 A303 RMK A01 T01510021  RH  042%=      5-min Rain = 0
KSW1 062032Z 02008KT 15/02 A303 RMK A01 T01520020  RH  041%=      5-min Rain = 0
KSW1 062033Z 02006KT 15/02 A303 RMK A01 T01510016  RH  040%=      5-min Rain = 0
KSW1 062034Z 35006KT 15/02 A303 RMK A01 T01480018  RH  041%=      5-min Rain = 0
KSW1 062035Z 34010KT 15/02 A303 RMK A01 T01480020  RH  042%=      5-min Rain = 0
KSW1 062036Z 34011KT 15/02 A303 RMK A01 T01490021  RH  042%=      5-min Rain = 0
KSW1 062037Z 33010KT 15/02 A303 RMK A01 T01490021  RH  042%=      5-min Rain = 0
KSW1 062038Z 34008KT 15/02 A303 RMK A01 T01480019  RH  042%=      5-min Rain = 0
KSW1 062039Z 34004KT 15/02 A303 RMK A01 T01460019  RH  042%=      5-min Rain = 0
KSW1 062040Z 35003KT 14/02 A303 RMK A01 T01440019  RH  043%=      5-min Rain = 0
KSW1 062041Z 34001KT 15/02 A303 RMK A01 T01450018  RH  042%=      5-min Rain = 0
KSW1 062042Z 32002KT 14/02 A303 RMK A01 T01440018  RH  042%=      5-min Rain = 0
KSW1 062043Z 32004KT 15/02 A303 RMK A01 T01450020  RH  043%=      5-min Rain = 0
KSW1 062044Z 32005KT 15/02 A303 RMK A01 T01470019  RH  042%=      5-min Rain = 0
KSW1 062045Z 31004KT 15/02 A303 RMK A01 T01450017  RH  042%=      5-min Rain = 0
KSW1 062046Z 35007KT 14/02 A303 RMK A01 T01440019  RH  043%=      5-min Rain = 0
KSW1 062047Z 36007KT 15/02 A303 RMK A01 T01460019  RH  042%=      5-min Rain = 0
KSW1 062048Z 01007KT 15/02 A303 RMK A01 T01480020  RH  042%=      5-min Rain = 0
KSW1 062049Z 36008KT 15/02 A303 RMK A01 T01490020  RH  041%=      5-min Rain = 0
KSW1 062050Z 36007KT 15/02 A303 RMK A01 T01480017  RH  041%=      5-min Rain = 0
KSW1 062051Z 01004KT 15/02 A303 RMK A01 T01450017  RH  042%=      5-min Rain = 0
KSW1 062052Z 33005KT 14/02 A303 RMK A01 T01440016  RH  042%=      5-min Rain = 0
KSW1 062053Z 33007KT 14/02 A303 RMK A01 T01420018  RH  043%=      5-min Rain = 0
KSW1 062054Z 33005KT 14/02 A303 RMK A01 T01420017  RH  043%=      5-min Rain = 0
KSW1 062055Z 34007KT 14/02 A303 RMK A01 T01430018  RH  043%=      5-min Rain = 0
KSW1 062056Z 35009KT 14/02 A303 RMK A01 T01440018  RH  042%=      5-min Rain = 0
KSW1 062057Z 35008KT 14/02 A303 RMK A01 T01440019  RH  043%=      5-min Rain = 0
KSW1 062058Z 35007KT 14/02 A303 RMK A01 T01440021  RH  043%=      5-min Rain = 0
KSW1 062059Z 35006KT 15/02 A303 RMK A01 T01460021  RH  043%=      5-min Rain = 0
KSW1 062100Z 00008KT 15/02 A3031 RMK A01 T01480021  RH  043%=      5-min Rain = 0
KSW1 062101Z 36007KT 15/02 A3031 RMK A01 T01460019  RH  042%=      5-min Rain = 0
KSW1 062102Z 00005KT 14/02 A3031 RMK A01 T01430019  RH  043%=      5-min Rain = 0
KSW1 062103Z 35003KT 14/02 A3031 RMK A01 T01430018  RH  043%=      5-min Rain = 0
KSW1 062104Z 00007KT 14/02 A3031 RMK A01 T01430019  RH  043%=      5-min Rain = 0
KSW1 062105Z 34006KT 14/02 A3031 RMK A01 T01430018  RH  043%=      5-min Rain = 0
KSW1 062106Z 34006KT 14/02 A3031 RMK A01 T01440018  RH  043%=      5-min Rain = 0
KSW1 062107Z 34005KT 14/02 A3031 RMK A01 T01440018  RH  043%=      5-min Rain = 0
KSW1 062108Z 34004KT 14/02 A3031 RMK A01 T01430017  RH  042%=      5-min Rain = 0
KSW1 062109Z 35006KT 14/02 A3031 RMK A01 T01430017  RH  043%=      5-min Rain = 0
KSW1 062110Z 35005KT 14/02 A3031 RMK A01 T01430017  RH  042%=      5-min Rain = 0
KSW1 062111Z 33005KT 14/02 A3031 RMK A01 T01440017  RH  042%=      5-min Rain = 0
KSW1 062112Z 34010KT 14/02 A303 RMK A01 T01440017  RH  042%=      5-min Rain = 0
KSW1 062113Z 01007KT 15/02 A303 RMK A01 T01450018  RH  042%=      5-min Rain = 0
KSW1 062114Z 34008KT 15/02 A303 RMK A01 T01460019  RH  042%=      5-min Rain = 0
KSW1 062115Z 34007KT 15/02 A303 RMK A01 T01470017  RH  041%=      5-min Rain = 0
KSW1 062116Z 35005KT 15/02 A303 RMK A01 T01450016  RH  042%=      5-min Rain = 0
KSW1 062117Z 02005KT 14/02 A3031 RMK A01 T01440017  RH  042%=      5-min Rain = 0
KSW1 062118Z 00005KT 15/02 A3031 RMK A01 T01450019  RH  042%=      5-min Rain = 0
KSW1 062119Z 36005KT 15/02 A3031 RMK A01 T01450018  RH  042%=      5-min Rain = 0
KSW1 062120Z 00007KT 15/02 A3031 RMK A01 T01450017  RH  042%=      5-min Rain = 0
KSW1 062121Z 35007KT 15/02 A3031 RMK A01 T01450017  RH  042%=      5-min Rain = 0
KSW1 062122Z 36008KT 14/02 A3031 RMK A01 T01440017  RH  042%=      5-min Rain = 0
KSW1 062123Z 00008KT 14/02 A303 RMK A01 T01430016  RH  042%=      5-min Rain = 0
KSW1 062124Z 36008KT 14/02 A303 RMK A01 T01430016  RH  042%=      5-min Rain = 0
KSW1 062125Z 36006KT 14/02 A303 RMK A01 T01420016  RH  043%=      5-min Rain = 0
KSW1 062126Z 01006KT 14/02 A3031 RMK A01 T01420019  RH  043%=      5-min Rain = 0
KSW1 062127Z 01006KT 14/02 A3031 RMK A01 T01430017  RH  043%=      5-min Rain = 0
KSW1 062128Z 02005KT 14/02 A3031 RMK A01 T01430016  RH  042%=      5-min Rain = 0
KSW1 062129Z 00005KT 14/02 A3031 RMK A01 T01430017  RH  042%=      5-min Rain = 0
KSW1 062130Z 36005KT 14/02 A3031 RMK A01 T01430016  RH  042%=      5-min Rain = 0
KSW1 062131Z 34005KT 14/02 A3031 RMK A01 T01430016  RH  042%=      5-min Rain = 0
KSW1 062132Z 36006KT 14/02 A3031 RMK A01 T01430017  RH  043%=      5-min Rain = 0
KSW1 062133Z 36006KT 14/02 A3031 RMK A01 T01430017  RH  042%=      5-min Rain = 0
KSW1 062134Z 36006KT 14/02 A3031 RMK A01 T01440019  RH  043%=      5-min Rain = 0
KSW1 062135Z 34008KT 14/02 A3031 RMK A01 T01440018  RH  042%=      5-min Rain = 0
KSW1 062136Z 34006KT 14/02 A3031 RMK A01 T01440017  RH  042%=      5-min Rain = 0
KSW1 062137Z 36006KT 14/02 A3031 RMK A01 T01440017  RH  042%=      5-min Rain = 0
KSW1 062138Z 00006KT 14/02 A3031 RMK A01 T01440017  RH  042%=      5-min Rain = 0
KSW1 062139Z 34006KT 14/02 A3031 RMK A01 T01440017  RH  042%=      5-min Rain = 0
KSW1 062140Z 34006KT 14/02 A3031 RMK A01 T01440017  RH  042%=      5-min Rain = 0
KSW1 062141Z 34006KT 14/02 A3031 RMK A01 T01440016  RH  042%=      5-min Rain = 0
KSW1 062142Z 33007KT 14/02 A3031 RMK A01 T01440016  RH  042%=      5-min Rain = 0
KSW1 062143Z 34006KT 14/02 A3031 RMK A01 T01440017  RH  042%=      5-min Rain = 0
KSW1 062144Z 36005KT 15/02 A3031 RMK A01 T01450018  RH  042%=      5-min Rain = 0
KSW1 062145Z 00005KT 15/02 A3031 RMK A01 T01450016  RH  041%=      5-min Rain = 0
KSW1 062146Z 36005KT 15/01 A3031 RMK A01 T01450014  RH  041%=      5-min Rain = 0
KSW1 062147Z 36006KT 14/02 A3031 RMK A01 T01440016  RH  042%=      5-min Rain = 0
KSW1 062148Z 00006KT 14/02 A3031 RMK A01 T01440016  RH  042%=      5-min Rain = 0
KSW1 062149Z 02008KT 15/02 A3031 RMK A01 T01450016  RH  042%=      5-min Rain = 0
KSW1 062150Z 01007KT 15/02 A3031 RMK A01 T01450015  RH  041%=      5-min Rain = 0
KSW1 062151Z 02005KT 15/02 A3031 RMK A01 T01450015  RH  041%=      5-min Rain = 0
KSW1 062152Z 02006KT 15/02 A3031 RMK A01 T01460016  RH  041%=      5-min Rain = 0
KSW1 062153Z 02006KT 15/01 A3031 RMK A01 T01470014  RH  040%=      5-min Rain = 0
KSW1 062154Z 01006KT 15/01 A3031 RMK A01 T01460014  RH  041%=      5-min Rain = 0
KSW1 062155Z 02008KT 15/01 A3031 RMK A01 T01460014  RH  041%=      5-min Rain = 0
KSW1 062156Z 02007KT 15/02 A3031 RMK A01 T01460016  RH  041%=      5-min Rain = 0
KSW1 062157Z 36007KT 15/02 A3031 RMK A01 T01470016  RH  041%=      5-min Rain = 0
KSW1 062158Z 01005KT 15/02 A3031 RMK A01 T01470016  RH  041%=      5-min Rain = 0
KSW1 062159Z 02007KT 15/02 A3031 RMK A01 T01480017  RH  041%=      5-min Rain = 0
KSW1 062200Z 02006KT 15/02 A3031 RMK A01 T01470016  RH  041%=      5-min Rain = 0
KSW1 062201Z 00008KT 15/02 A3031 RMK A01 T01460015  RH  041%=      5-min Rain = 0
KSW1 062202Z 36006KT 15/02 A3031 RMK A01 T01450015  RH  041%=      5-min Rain = 0
KSW1 062203Z 34005KT 15/02 A3031 RMK A01 T01450016  RH  042%=      5-min Rain = 0
KSW1 062204Z 36006KT 15/02 A3031 RMK A01 T01450017  RH  042%=      5-min Rain = 0
KSW1 062205Z 02007KT 15/02 A3031 RMK A01 T01460017  RH  042%=      5-min Rain = 0
KSW1 062206Z 01007KT 15/02 A3031 RMK A01 T01470017  RH  041%=      5-min Rain = 0
KSW1 062207Z 01006KT 15/02 A3031 RMK A01 T01470016  RH  041%=      5-min Rain = 0
KSW1 062208Z 03007KT 15/02 A3031 RMK A01 T01460017  RH  041%=      5-min Rain = 0
KSW1 062209Z 02006KT 15/02 A3031 RMK A01 T01460017  RH  041%=      5-min Rain = 0
KSW1 062210Z 01006KT 15/02 A3031 RMK A01 T01460016  RH  041%=      5-min Rain = 0
KSW1 062211Z 36006KT 15/02 A3031 RMK A01 T01470017  RH  042%=      5-min Rain = 0
KSW1 062212Z 35008KT 15/02 A3031 RMK A01 T01480016  RH  041%=      5-min Rain = 0
KSW1 062213Z 36008KT 15/02 A3031 RMK A01 T01470016  RH  041%=      5-min Rain = 0
KSW1 062214Z 00008KT 15/02 A3031 RMK A01 T01460016  RH  041%=      5-min Rain = 0
KSW1 062215Z 01007KT 15/02 A3031 RMK A01 T01450015  RH  041%=      5-min Rain = 0
KSW1 062216Z 00006KT 14/02 A3031 RMK A01 T01440016  RH  042%=      5-min Rain = 0
KSW1 062217Z 35004KT 14/02 A3031 RMK A01 T01440018  RH  042%=      5-min Rain = 0
KSW1 062218Z 35006KT 15/02 A3031 RMK A01 T01460019  RH  042%=      5-min Rain = 0
KSW1 062219Z 00006KT 15/02 A3031 RMK A01 T01470018  RH  042%=      5-min Rain = 0
KSW1 062220Z 00006KT 15/02 A3031 RMK A01 T01480018  RH  041%=      5-min Rain = 0
KSW1 062221Z 35005KT 15/02 A3031 RMK A01 T01480018  RH  041%=      5-min Rain = 0
KSW1 062222Z 01004KT 15/02 A3031 RMK A01 T01470018  RH  042%=      5-min Rain = 0
KSW1 062223Z 00006KT 15/02 A3031 RMK A01 T01480019  RH  042%=      5-min Rain = 0
KSW1 062224Z 36006KT 15/02 A3031 RMK A01 T01480018  RH  041%=      5-min Rain = 0
KSW1 062225Z 36007KT 15/02 A3031 RMK A01 T01470017  RH  041%=      5-min Rain = 0
KSW1 062226Z 01009KT 15/02 A3031 RMK A01 T01470017  RH  041%=      5-min Rain = 0
KSW1 062227Z 01008KT 15/02 A3031 RMK A01 T01460015  RH  041%=      5-min Rain = 0
KSW1 062228Z 36006KT 15/02 A3031 RMK A01 T01450016  RH  042%=      5-min Rain = 0
KSW1 062229Z 00006KT 15/02 A3031 RMK A01 T01450016  RH  041%=      5-min Rain = 0
KSW1 062230Z 01007KT 15/02 A3031 RMK A01 T01450015  RH  041%=      5-min Rain = 0
KSW1 062231Z 02006KT 15/02 A3031 RMK A01 T01450015  RH  041%=      5-min Rain = 0
KSW1 062232Z 02007KT 15/02 A3031 RMK A01 T01450015  RH  041%=      5-min Rain = 0
KSW1 062233Z 03005KT 15/01 A3031 RMK A01 T01450014  RH  041%=      5-min Rain = 0
KSW1 062234Z 02006KT 15/02 A3031 RMK A01 T01450015  RH  041%=      5-min Rain = 0
KSW1 062235Z 03007KT 15/01 A3031 RMK A01 T01450014  RH  041%=      5-min Rain = 0
KSW1 062236Z 03007KT 14/01 A3031 RMK A01 T01430013  RH  041%=      5-min Rain = 0
KSW1 062237Z 02006KT 14/01 A3031 RMK A01 T01410012  RH  041%=      5-min Rain = 0
KSW1 062238Z 01006KT 14/01 A3031 RMK A01 T01400013  RH  042%=      5-min Rain = 0
KSW1 062239Z 01006KT 14/01 A3031 RMK A01 T01390013  RH  042%=      5-min Rain = 0
KSW1 062240Z 01006KT 14/01 A3031 RMK A01 T01380013  RH  043%=      5-min Rain = 0
KSW1 062241Z 00005KT 14/02 A3031 RMK A01 T01380015  RH  043%=      5-min Rain = 0
KSW1 062242Z 01005KT 14/02 A3031 RMK A01 T01380016  RH  043%=      5-min Rain = 0
KSW1 062243Z 01007KT 14/02 A3031 RMK A01 T01380016  RH  043%=      5-min Rain = 0
KSW1 062244Z 02007KT 14/02 A3031 RMK A01 T01380016  RH  043%=      5-min Rain = 0
KSW1 062245Z 02005KT 14/02 A3031 RMK A01 T01380017  RH  044%=      5-min Rain = 0
KSW1 062246Z 01005KT 14/02 A3031 RMK A01 T01380017  RH  044%=      5-min Rain = 0
KSW1 062247Z 02005KT 14/02 A3031 RMK A01 T01380018  RH  044%=      5-min Rain = 0
KSW1 062248Z 00005KT 14/02 A3031 RMK A01 T01380017  RH  044%=      5-min Rain = 0
KSW1 062249Z 01003KT 14/02 A3031 RMK A01 T01370017  RH  044%=      5-min Rain = 0
KSW1 062250Z 02005KT 14/02 A3031 RMK A01 T01370017  RH  044%=      5-min Rain = 0
KSW1 062251Z 02006KT 14/02 A3031 RMK A01 T01360016  RH  044%=      5-min Rain = 0
KSW1 062252Z 02006KT 14/02 A3031 RMK A01 T01350016  RH  044%=      5-min Rain = 0
KSW1 062253Z 03005KT 14/02 A3031 RMK A01 T01350017  RH  045%=      5-min Rain = 0
KSW1 062254Z 03005KT 13/02 A3031 RMK A01 T01340017  RH  045%=      5-min Rain = 0
KSW1 062255Z 03006KT 13/02 A3031 RMK A01 T01330016  RH  045%=      5-min Rain = 0
KSW1 062256Z 03006KT 13/02 A3031 RMK A01 T01330016  RH  045%=      5-min Rain = 0
KSW1 062257Z 04005KT 13/02 A3031 RMK A01 T01320015  RH  045%=      5-min Rain = 0
KSW1 062258Z 04005KT 13/02 A3031 RMK A01 T01320016  RH  045%=      5-min Rain = 0
KSW1 062259Z 03005KT 13/02 A3031 RMK A01 T01310016  RH  046%=      5-min Rain = 0
KSW1 062300Z 03006KT 13/02 A3031 RMK A01 T01300016  RH  046%=      5-min Rain = 0
KSW1 062301Z 03006KT 13/02 A3031 RMK A01 T01290016  RH  046%=      5-min Rain = 0
KSW1 062302Z 03005KT 13/02 A3031 RMK A01 T01280017  RH  046%=      5-min Rain = 0
KSW1 062303Z 03006KT 13/02 A3031 RMK A01 T01280017  RH  047%=      5-min Rain = 0
KSW1 062304Z 03006KT 13/02 A3031 RMK A01 T01270017  RH  047%=      5-min Rain = 0
KSW1 062305Z 03006KT 13/02 A3032 RMK A01 T01260017  RH  047%=      5-min Rain = 0
KSW1 062306Z 03005KT 13/02 A3032 RMK A01 T01260017  RH  047%=      5-min Rain = 0
KSW1 062307Z 03006KT 13/02 A3032 RMK A01 T01250017  RH  048%=      5-min Rain = 0
KSW1 062308Z 03005KT 12/02 A3032 RMK A01 T01240017  RH  048%=      5-min Rain = 0
KSW1 062309Z 03006KT 12/02 A3032 RMK A01 T01230017  RH  048%=      5-min Rain = 0
KSW1 062310Z 03005KT 12/02 A3032 RMK A01 T01230017  RH  048%=      5-min Rain = 0
KSW1 062311Z 03006KT 12/02 A3032 RMK A01 T01220017  RH  049%=      5-min Rain = 0
KSW1 062312Z 02006KT 12/02 A3032 RMK A01 T01210017  RH  049%=      5-min Rain = 0
KSW1 062313Z 03006KT 12/02 A3032 RMK A01 T01210017  RH  049%=      5-min Rain = 0
KSW1 062314Z 03006KT 12/02 A3032 RMK A01 T01200017  RH  049%=      5-min Rain = 0
KSW1 062315Z 03006KT 12/02 A3032 RMK A01 T01190017  RH  050%=      5-min Rain = 0
KSW1 062316Z 03006KT 12/02 A3032 RMK A01 T01190017  RH  050%=      5-min Rain = 0
KSW1 062317Z 03006KT 12/02 A3032 RMK A01 T01180017  RH  050%=      5-min Rain = 0
KSW1 062318Z 03006KT 12/02 A3032 RMK A01 T01170017  RH  050%=      5-min Rain = 0
KSW1 062319Z 03006KT 12/02 A3032 RMK A01 T01160017  RH  051%=      5-min Rain = 0
KSW1 062320Z 03006KT 12/02 A3032 RMK A01 T01160017  RH  051%=      5-min Rain = 0
KSW1 062321Z 03006KT 12/02 A3032 RMK A01 T01150017  RH  051%=      5-min Rain = 0
KSW1 062322Z 03006KT 11/02 A3032 RMK A01 T01140017  RH  051%=      5-min Rain = 0
KSW1 062323Z 03006KT 11/02 A3032 RMK A01 T01140017  RH  051%=      5-min Rain = 0
KSW1 062324Z 03006KT 11/02 A3032 RMK A01 T01130018  RH  052%=      5-min Rain = 0
KSW1 062325Z 03006KT 11/02 A3032 RMK A01 T01130018  RH  052%=      5-min Rain = 0
KSW1 062326Z 03006KT 11/02 A3032 RMK A01 T01120017  RH  052%=      5-min Rain = 0
KSW1 062327Z 02005KT 11/02 A3032 RMK A01 T01120017  RH  052%=      5-min Rain = 0
KSW1 062328Z 03006KT 11/02 A3032 RMK A01 T01110017  RH  052%=      5-min Rain = 0
KSW1 062329Z 03006KT 11/02 A3032 RMK A01 T01100017  RH  053%=      5-min Rain = 0
KSW1 062330Z 03006KT 11/02 A3032 RMK A01 T01100017  RH  053%=      5-min Rain = 0
KSW1 062331Z 03006KT 11/02 A3032 RMK A01 T01090017  RH  053%=      5-min Rain = 0
KSW1 062332Z 03006KT 11/02 A3032 RMK A01 T01080017  RH  053%=      5-min Rain = 0
KSW1 062333Z 03007KT 11/02 A3032 RMK A01 T01080017  RH  054%=      5-min Rain = 0
KSW1 062334Z 03007KT 11/02 A3032 RMK A01 T01070017  RH  054%=      5-min Rain = 0
KSW1 062335Z 03007KT 11/02 A3032 RMK A01 T01050017  RH  054%=      5-min Rain = 0
KSW1 062336Z 03007KT 11/02 A3032 RMK A01 T01050017  RH  055%=      5-min Rain = 0
KSW1 062337Z 03007KT 10/02 A3032 RMK A01 T01040018  RH  055%=      5-min Rain = 0
KSW1 062338Z 03007KT 10/02 A3032 RMK A01 T01040018  RH  055%=      5-min Rain = 0
KSW1 062339Z 03007KT 10/02 A3032 RMK A01 T01030018  RH  055%=      5-min Rain = 0
KSW1 062340Z 03007KT 10/02 A3032 RMK A01 T01040018  RH  055%=      5-min Rain = 0
KSW1 062341Z 03007KT 10/02 A3032 RMK A01 T01030018  RH  056%=      5-min Rain = 0
KSW1 062342Z 03007KT 10/02 A3032 RMK A01 T01020018  RH  056%=      5-min Rain = 0
KSW1 062343Z 03007KT 10/02 A3032 RMK A01 T01020018  RH  056%=      5-min Rain = 0
KSW1 062344Z 03007KT 10/02 A3032 RMK A01 T01010018  RH  056%=      5-min Rain = 0
KSW1 062345Z 03007KT 10/02 A3032 RMK A01 T01000017  RH  056%=      5-min Rain = 0
KSW1 062346Z 03007KT 10/02 A3032 RMK A01 T01000018  RH  057%=      5-min Rain = 0
KSW1 062347Z 04007KT 10/02 A3032 RMK A01 T00990017  RH  057%=      5-min Rain = 0
KSW1 062348Z 04007KT 10/02 A3032 RMK A01 T00990018  RH  057%=      5-min Rain = 0
KSW1 062349Z 04008KT 10/02 A3032 RMK A01 T00990018  RH  057%=      5-min Rain = 0
KSW1 062350Z 04008KT 10/02 A3032 RMK A01 T00990018  RH  057%=      5-min Rain = 0
KSW1 062351Z 03008KT 10/02 A3032 RMK A01 T00990018  RH  057%=      5-min Rain = 0
KSW1 062352Z 03008KT 10/02 A3032 RMK A01 T00990018  RH  057%=      5-min Rain = 0
KSW1 062353Z 03008KT 10/02 A3032 RMK A01 T00990018  RH  057%=      5-min Rain = 0
KSW1 062354Z 03007KT 10/02 A3032 RMK A01 T00990018  RH  057%=      5-min Rain = 0
KSW1 062355Z 03007KT 10/02 A3032 RMK A01 T00990018  RH  057%=      5-min Rain = 0
KSW1 062356Z 03007KT 10/02 A3033 RMK A01 T00990018  RH  057%=      5-min Rain = 0
KSW1 062357Z 03007KT 10/02 A3033 RMK A01 T01000018  RH  057%=      5-min Rain = 0
KSW1 062358Z 03007KT 10/02 A3033 RMK A01 T01000018  RH  057%=      5-min Rain = 0
KSW1 062359Z 03007KT 10/02 A3033 RMK A01 T01000018  RH  057%=      5-min Rain = 0
KSW1 070000Z 03007KT 10/02 A3033 RMK A01 T01000018  RH  056%=      5-min Rain = 0
KSW1 070001Z 03007KT 10/02 A3033 RMK A01 T01000018  RH  057%=      5-min Rain = 0
KSW1 070002Z 03007KT 10/02 A3033 RMK A01 T01000017  RH  057%=      5-min Rain = 0
KSW1 070003Z 03007KT 10/02 A3033 RMK A01 T00990017  RH  057%=      5-min Rain = 0
KSW1 070004Z 03007KT 10/02 A3033 RMK A01 T00990017  RH  057%=      5-min Rain = 0
KSW1 070005Z 03007KT 10/02 A3033 RMK A01 T00980017  RH  057%=      5-min Rain = 0
KSW1 070006Z 03007KT 10/02 A3033 RMK A01 T00980017  RH  057%=      5-min Rain = 0
KSW1 070007Z 03007KT 10/02 A3033 RMK A01 T00980017  RH  057%=      5-min Rain = 0
KSW1 070008Z 03007KT 10/02 A3033 RMK A01 T00980017  RH  057%=      5-min Rain = 0
KSW1 070009Z 03007KT 10/02 A3033 RMK A01 T00980017  RH  057%=      5-min Rain = 0
KSW1 070010Z 04007KT 10/02 A3033 RMK A01 T00970017  RH  057%=      5-min Rain = 0
KSW1 070011Z 04007KT 10/02 A3033 RMK A01 T00960017  RH  058%=      5-min Rain = 0
KSW1 070012Z 04007KT 10/02 A3033 RMK A01 T00950016  RH  058%=      5-min Rain = 0
KSW1 070013Z 03007KT 09/02 A3033 RMK A01 T00940016  RH  058%=      5-min Rain = 0
KSW1 070014Z 04007KT 09/02 A3033 RMK A01 T00940017  RH  058%=      5-min Rain = 0
KSW1 070015Z 03007KT 09/02 A3033 RMK A01 T00940017  RH  058%=      5-min Rain = 0
KSW1 070016Z 03008KT 09/02 A3033 RMK A01 T00940017  RH  058%=      5-min Rain = 0
KSW1 070017Z 04007KT 09/02 A3033 RMK A01 T00940017  RH  058%=      5-min Rain = 0
KSW1 070018Z 04008KT 09/02 A3033 RMK A01 T00940017  RH  058%=      5-min Rain = 0
KSW1 070019Z 03008KT 09/02 A3033 RMK A01 T00940017  RH  058%=      5-min Rain = 0
KSW1 070020Z 04008KT 10/02 A3033 RMK A01 T00950017  RH  058%=      5-min Rain = 0
KSW1 070021Z 04008KT 10/02 A3033 RMK A01 T00950017  RH  058%=      5-min Rain = 0
KSW1 070022Z 04008KT 10/02 A3033 RMK A01 T00950017  RH  058%=      5-min Rain = 0
KSW1 070023Z 04008KT 10/02 A3033 RMK A01 T00950017  RH  058%=      5-min Rain = 0
KSW1 070024Z 04008KT 09/02 A3033 RMK A01 T00940017  RH  058%=      5-min Rain = 0
KSW1 070025Z 04008KT 09/02 A3033 RMK A01 T00940017  RH  059%=      5-min Rain = 0
KSW1 070026Z 04008KT 09/02 A3033 RMK A01 T00940017  RH  059%=      5-min Rain = 0
KSW1 070027Z 04008KT 09/02 A3033 RMK A01 T00930017  RH  059%=      5-min Rain = 0
KSW1 070028Z 04007KT 09/02 A3033 RMK A01 T00920017  RH  059%=      5-min Rain = 0
KSW1 070029Z 04007KT 09/02 A3033 RMK A01 T00910016  RH  059%=      5-min Rain = 0
KSW1 070030Z 04007KT 09/02 A3033 RMK A01 T00910017  RH  060%=      5-min Rain = 0
KSW1 070031Z 04007KT 09/02 A3033 RMK A01 T00900017  RH  060%=      5-min Rain = 0
KSW1 070032Z 04007KT 09/02 A3033 RMK A01 T00890016  RH  060%=      5-min Rain = 0
KSW1 070033Z 04007KT 09/02 A3033 RMK A01 T00890016  RH  060%=      5-min Rain = 0
KSW1 070034Z 04007KT 09/02 A3033 RMK A01 T00880016  RH  061%=      5-min Rain = 0
KSW1 070035Z 04007KT 09/02 A3034 RMK A01 T00880016  RH  061%=      5-min Rain = 0
KSW1 070036Z 04008KT 09/02 A3034 RMK A01 T00870016  RH  061%=      5-min Rain = 0
KSW1 070037Z 04008KT 09/02 A3034 RMK A01 T00860016  RH  061%=      5-min Rain = 0
KSW1 070038Z 04008KT 09/02 A3034 RMK A01 T00860017  RH  062%=      5-min Rain = 0
KSW1 070039Z 04008KT 09/02 A3034 RMK A01 T00860017  RH  062%=      5-min Rain = 0
KSW1 070040Z 04007KT 09/02 A3033 RMK A01 T00860017  RH  062%=      5-min Rain = 0
KSW1 070041Z 04007KT 09/02 A3033 RMK A01 T00860017  RH  062%=      5-min Rain = 0
KSW1 070042Z 04007KT 09/02 A3033 RMK A01 T00860017  RH  062%=      5-min Rain = 0
KSW1 070043Z 04007KT 09/02 A3033 RMK A01 T00850016  RH  062%=      5-min Rain = 0
KSW1 070044Z 04007KT 09/02 A3034 RMK A01 T00850016  RH  062%=      5-min Rain = 0
KSW1 070045Z 04007KT 08/02 A3034 RMK A01 T00840016  RH  062%=      5-min Rain = 0
KSW1 070046Z 04007KT 08/02 A3034 RMK A01 T00840016  RH  062%=      5-min Rain = 0
KSW1 070047Z 04007KT 09/02 A3034 RMK A01 T00850017  RH  062%=      5-min Rain = 0
KSW1 070048Z 04007KT 09/02 A3034 RMK A01 T00850017  RH  062%=      5-min Rain = 0
KSW1 070049Z 04007KT 09/02 A3034 RMK A01 T00850017  RH  062%=      5-min Rain = 0
KSW1 070050Z 04007KT 09/02 A3034 RMK A01 T00850017  RH  062%=      5-min Rain = 0
KSW1 070051Z 04007KT 09/02 A3034 RMK A01 T00860017  RH  062%=      5-min Rain = 0
KSW1 070052Z 04007KT 09/02 A3034 RMK A01 T00860017  RH  062%=      5-min Rain = 0
KSW1 070053Z 04008KT 09/02 A3034 RMK A01 T00850017  RH  062%=      5-min Rain = 0
KSW1 070054Z 04008KT 09/02 A3034 RMK A01 T00860017  RH  062%=      5-min Rain = 0
KSW1 070055Z 04007KT 09/02 A3034 RMK A01 T00850017  RH  062%=      5-min Rain = 0
KSW1 070056Z 04007KT 08/02 A3034 RMK A01 T00840017  RH  062%=      5-min Rain = 0
KSW1 070057Z 04007KT 08/02 A3034 RMK A01 T00830016  RH  063%=      5-min Rain = 0
KSW1 070058Z 05007KT 08/02 A3034 RMK A01 T00830016  RH  063%=      5-min Rain = 0
KSW1 070059Z 05007KT 08/02 A3034 RMK A01 T00820016  RH  063%=      5-min Rain = 0
KSW1 070100Z 05007KT 08/02 A3034 RMK A01 T00810016  RH  064%=      5-min Rain = 0
KSW1 070101Z 05007KT 08/02 A3034 RMK A01 T00800016  RH  064%=      5-min Rain = 0
KSW1 070102Z 05007KT 08/02 A3034 RMK A01 T00800016  RH  064%=      5-min Rain = 0
KSW1 070103Z 05007KT 08/02 A3034 RMK A01 T00790016  RH  064%=      5-min Rain = 0
KSW1 070104Z 05007KT 08/02 A3034 RMK A01 T00780015  RH  065%=      5-min Rain = 0
KSW1 070105Z 05007KT 08/02 A3034 RMK A01 T00780015  RH  065%=      5-min Rain = 0
KSW1 070106Z 06007KT 08/02 A3034 RMK A01 T00780016  RH  065%=      5-min Rain = 0
KSW1 070107Z 06007KT 08/02 A3034 RMK A01 T00760015  RH  065%=      5-min Rain = 0
KSW1 070108Z 06007KT 08/02 A3034 RMK A01 T00760015  RH  065%=      5-min Rain = 0
KSW1 070109Z 06007KT 08/02 A3034 RMK A01 T00760016  RH  066%=      5-min Rain = 0
KSW1 070110Z 06007KT 08/02 A3034 RMK A01 T00760016  RH  066%=      5-min Rain = 0
KSW1 070111Z 06007KT 08/02 A3034 RMK A01 T00760016  RH  066%=      5-min Rain = 0
KSW1 070112Z 06008KT 08/02 A3034 RMK A01 T00760016  RH  066%=      5-min Rain = 0
KSW1 070113Z 06007KT 08/02 A3034 RMK A01 T00760016  RH  066%=      5-min Rain = 0
KSW1 070114Z 06007KT 08/02 A3034 RMK A01 T00760016  RH  066%=      5-min Rain = 0
KSW1 070115Z 06007KT 08/02 A3034 RMK A01 T00770016  RH  066%=      5-min Rain = 0
KSW1 070116Z 06007KT 08/02 A3034 RMK A01 T00760016  RH  066%=      5-min Rain = 0
KSW1 070117Z 06007KT 08/02 A3034 RMK A01 T00760016  RH  066%=      5-min Rain = 0
KSW1 070118Z 06007KT 08/02 A3034 RMK A01 T00760016  RH  066%=      5-min Rain = 0
KSW1 070119Z 06008KT 08/02 A3034 RMK A01 T00750016  RH  066%=      5-min Rain = 0
KSW1 070120Z 06008KT 08/02 A3034 RMK A01 T00750016  RH  066%=      5-min Rain = 0
KSW1 070121Z 05008KT 08/02 A3034 RMK A01 T00750016  RH  066%=      5-min Rain = 0
KSW1 070122Z 05008KT 08/02 A3034 RMK A01 T00750016  RH  066%=      5-min Rain = 0
KSW1 070123Z 05008KT 08/02 A3034 RMK A01 T00750016  RH  066%=      5-min Rain = 0
KSW1 070124Z 05008KT 08/02 A3034 RMK A01 T00750016  RH  066%=      5-min Rain = 0
KSW1 070125Z 05008KT 08/02 A3034 RMK A01 T00750016  RH  066%=      5-min Rain = 0
KSW1 070126Z 05008KT 08/02 A3034 RMK A01 T00750016  RH  066%=      5-min Rain = 0
KSW1 070127Z 05008KT 07/02 A3034 RMK A01 T00740016  RH  066%=      5-min Rain = 0
KSW1 070128Z 05008KT 07/02 A3034 RMK A01 T00740016  RH  067%=      5-min Rain = 0
KSW1 070129Z 06008KT 07/02 A3034 RMK A01 T00730015  RH  067%=      5-min Rain = 0
KSW1 070130Z 06008KT 07/02 A3034 RMK A01 T00710015  RH  067%=      5-min Rain = 0
KSW1 070131Z 06008KT 07/02 A3034 RMK A01 T00710015  RH  068%=      5-min Rain = 0
KSW1 070132Z 06008KT 07/02 A3034 RMK A01 T00700015  RH  068%=      5-min Rain = 0
KSW1 070133Z 06008KT 07/02 A3034 RMK A01 T00700015  RH  068%=      5-min Rain = 0
KSW1 070134Z 06008KT 07/02 A3034 RMK A01 T00690015  RH  068%=      5-min Rain = 0
KSW1 070135Z 06008KT 07/02 A3034 RMK A01 T00690016  RH  069%=      5-min Rain = 0
KSW1 070136Z 05008KT 07/02 A3034 RMK A01 T00690015  RH  068%=      5-min Rain = 0
KSW1 070137Z 05008KT 07/02 A3034 RMK A01 T00700016  RH  068%=      5-min Rain = 0
KSW1 070138Z 05008KT 07/02 A3034 RMK A01 T00700016  RH  068%=      5-min Rain = 0
KSW1 070139Z 05009KT 07/02 A3034 RMK A01 T00700016  RH  068%=      5-min Rain = 0
KSW1 070140Z 05009KT 07/02 A3034 RMK A01 T00700016  RH  068%=      5-min Rain = 0
KSW1 070141Z 05009KT 07/02 A3034 RMK A01 T00700016  RH  068%=      5-min Rain = 0
KSW1 070142Z 05009KT 07/02 A3034 RMK A01 T00700016  RH  069%=      5-min Rain = 0
KSW1 070143Z 05009KT 07/02 A3034 RMK A01 T00700016  RH  069%=      5-min Rain = 0
KSW1 070144Z 05009KT 07/02 A3034 RMK A01 T00700017  RH  069%=      5-min Rain = 0
KSW1 070145Z 06010KT 07/02 A3034 RMK A01 T00700017  RH  069%=      5-min Rain = 0
KSW1 070146Z 06009KT 07/02 A3034 RMK A01 T00710018  RH  069%=      5-min Rain = 0
KSW1 070147Z 05009KT 07/02 A3034 RMK A01 T00720018  RH  068%=      5-min Rain = 0
KSW1 070148Z 06010KT 07/02 A3034 RMK A01 T00740019  RH  068%=      5-min Rain = 0
KSW1 070149Z 06010KT 08/02 A3034 RMK A01 T00750019  RH  068%=      5-min Rain = 0
KSW1 070150Z 06010KT 08/02 A3034 RMK A01 T00770019  RH  067%=      5-min Rain = 0
KSW1 070151Z 06009KT 08/02 A3034 RMK A01 T00780019  RH  066%=      5-min Rain = 0
KSW1 070152Z 05010KT 08/02 A3034 RMK A01 T00780019  RH  066%=      5-min Rain = 0
KSW1 070153Z 05009KT 08/02 A3034 RMK A01 T00780019  RH  066%=      5-min Rain = 0
KSW1 070154Z 06010KT 08/02 A3034 RMK A01 T00780019  RH  066%=      5-min Rain = 0
KSW1 070155Z 06009KT 08/02 A3034 RMK A01 T00770019  RH  067%=      5-min Rain = 0
KSW1 070156Z 06010KT 08/02 A3034 RMK A01 T00760019  RH  067%=      5-min Rain = 0
KSW1 070157Z 06010KT 08/02 A3034 RMK A01 T00760019  RH  067%=      5-min Rain = 0
KSW1 070158Z 06010KT 08/02 A3034 RMK A01 T00750019  RH  068%=      5-min Rain = 0
KSW1 070159Z 06010KT 08/02 A3034 RMK A01 T00750019  RH  068%=      5-min Rain = 0
KSW1 070200Z 06010KT 08/02 A3034 RMK A01 T00750019  RH  068%=      5-min Rain = 0
KSW1 070201Z 06010KT 08/02 A3034 RMK A01 T00750019  RH  068%=      5-min Rain = 0
KSW1 070202Z 06009KT 08/02 A3034 RMK A01 T00750019  RH  068%=      5-min Rain = 0
KSW1 070203Z 06010KT 08/02 A3034 RMK A01 T00750020  RH  068%=      5-min Rain = 0
KSW1 070204Z 05009KT 08/02 A3034 RMK A01 T00750020  RH  068%=      5-min Rain = 0
KSW1 070205Z 06009KT 07/02 A3034 RMK A01 T00740019  RH  068%=      5-min Rain = 0
KSW1 070206Z 06009KT 07/02 A3035 RMK A01 T00740019  RH  068%=      5-min Rain = 0
KSW1 070207Z 06009KT 07/02 A3035 RMK A01 T00740020  RH  068%=      5-min Rain = 0
KSW1 070208Z 06009KT 07/02 A3035 RMK A01 T00740019  RH  068%=      5-min Rain = 0
KSW1 070209Z 06009KT 07/02 A3035 RMK A01 T00730019  RH  068%=      5-min Rain = 0
KSW1 070210Z 05009KT 07/02 A3035 RMK A01 T00730019  RH  069%=      5-min Rain = 0
KSW1 070211Z 06009KT 07/02 A3035 RMK A01 T00720019  RH  069%=      5-min Rain = 0
KSW1 070212Z 06009KT 07/02 A3035 RMK A01 T00720019  RH  069%=      5-min Rain = 0
KSW1 070213Z 05009KT 07/02 A3035 RMK A01 T00710018  RH  069%=      5-min Rain = 0
KSW1 070214Z 06009KT 07/02 A3035 RMK A01 T00710019  RH  069%=      5-min Rain = 0
KSW1 070215Z 05009KT 07/02 A3035 RMK A01 T00700018  RH  070%=      5-min Rain = 0
KSW1 070216Z 05009KT 07/02 A3035 RMK A01 T00700018  RH  070%=      5-min Rain = 0
KSW1 070217Z 05009KT 07/02 A3035 RMK A01 T00700018  RH  070%=      5-min Rain = 0
KSW1 070218Z 05009KT 07/02 A3035 RMK A01 T00690018  RH  070%=      5-min Rain = 0
KSW1 070219Z 05009KT 07/02 A3035 RMK A01 T00690018  RH  070%=      5-min Rain = 0
KSW1 070220Z 05009KT 07/02 A3035 RMK A01 T00690018  RH  070%=      5-min Rain = 0
KSW1 070221Z 05009KT 07/02 A3035 RMK A01 T00690019  RH  070%=      5-min Rain = 0
KSW1 070222Z 05009KT 07/02 A3035 RMK A01 T00690019  RH  070%=      5-min Rain = 0
KSW1 070223Z 05009KT 07/02 A3035 RMK A01 T00690019  RH  070%=      5-min Rain = 0
KSW1 070224Z 05009KT 07/02 A3035 RMK A01 T00690019  RH  070%=      5-min Rain = 0
KSW1 070225Z 06009KT 07/02 A3035 RMK A01 T00690019  RH  070%=      5-min Rain = 0
KSW1 070226Z 06010KT 07/02 A3035 RMK A01 T00690019  RH  070%=      5-min Rain = 0
KSW1 070227Z 06009KT 07/02 A3035 RMK A01 T00690019  RH  070%=      5-min Rain = 0
KSW1 070228Z 06010KT 07/02 A3035 RMK A01 T00690019  RH  070%=      5-min Rain = 0
KSW1 070229Z 06009KT 07/02 A3035 RMK A01 T00690020  RH  071%=      5-min Rain = 0
KSW1 070230Z 06009KT 07/02 A3035 RMK A01 T00690019  RH  071%=      5-min Rain = 0
KSW1 070231Z 06010KT 07/02 A3035 RMK A01 T00680019  RH  071%=      5-min Rain = 0
KSW1 070232Z 06009KT 07/02 A3035 RMK A01 T00680019  RH  071%=      5-min Rain = 0
KSW1 070233Z 06010KT 07/02 A3035 RMK A01 T00680019  RH  071%=      5-min Rain = 0
KSW1 070234Z 06010KT 07/02 A3035 RMK A01 T00670019  RH  071%=      5-min Rain = 0
KSW1 070235Z 06009KT 07/02 A3035 RMK A01 T00670019  RH  071%=      5-min Rain = 0
KSW1 070236Z 06009KT 07/02 A3035 RMK A01 T00660018  RH  071%=      5-min Rain = 0
KSW1 070237Z 06009KT 07/02 A3035 RMK A01 T00660019  RH  072%=      5-min Rain = 0
KSW1 070238Z 06009KT 07/02 A3035 RMK A01 T00660018  RH  072%=      5-min Rain = 0
KSW1 070239Z 06009KT 07/02 A3035 RMK A01 T00650018  RH  072%=      5-min Rain = 0
KSW1 070240Z 06009KT 07/02 A3035 RMK A01 T00650018  RH  072%=      5-min Rain = 0
KSW1 070241Z 06009KT 07/02 A3035 RMK A01 T00650019  RH  072%=      5-min Rain = 0
KSW1 070242Z 06010KT 07/02 A3035 RMK A01 T00650019  RH  072%=      5-min Rain = 0
KSW1 070243Z 06010KT 07/02 A3035 RMK A01 T00650018  RH  072%=      5-min Rain = 0
KSW1 070244Z 05010KT 07/02 A3035 RMK A01 T00650019  RH  072%=      5-min Rain = 0
KSW1 070245Z 06010KT 07/02 A3035 RMK A01 T00650019  RH  072%=      5-min Rain = 0
KSW1 070246Z 05010KT 07/02 A3035 RMK A01 T00650019  RH  072%=      5-min Rain = 0
KSW1 070247Z 05010KT 07/02 A3035 RMK A01 T00650019  RH  072%=      5-min Rain = 0
KSW1 070248Z 05010KT 07/02 A3035 RMK A01 T00650019  RH  072%=      5-min Rain = 0
KSW1 070249Z 06010KT 06/02 A3035 RMK A01 T00640018  RH  073%=      5-min Rain = 0
KSW1 070250Z 05009KT 06/02 A3035 RMK A01 T00640018  RH  073%=      5-min Rain = 0
KSW1 070251Z 05010KT 06/02 A3035 RMK A01 T00630018  RH  073%=      5-min Rain = 0
KSW1 070252Z 05009KT 06/02 A3035 RMK A01 T00630018  RH  073%=      5-min Rain = 0
KSW1 070253Z 05009KT 06/02 A3035 RMK A01 T00630018  RH  073%=      5-min Rain = 0
KSW1 070254Z 06009KT 06/02 A3035 RMK A01 T00630018  RH  073%=      5-min Rain = 0
KSW1 070255Z 06010KT 06/02 A3035 RMK A01 T00630019  RH  073%=      5-min Rain = 0
KSW1 070256Z 06009KT 06/02 A3035 RMK A01 T00620019  RH  073%=      5-min Rain = 0
KSW1 070257Z 06010KT 06/02 A3035 RMK A01 T00620018  RH  073%=      5-min Rain = 0
KSW1 070258Z 06009KT 06/02 A3035 RMK A01 T00620018  RH  074%=      5-min Rain = 0
KSW1 070259Z 06009KT 06/02 A3035 RMK A01 T00620018  RH  074%=      5-min Rain = 0
KSW1 070300Z 06009KT 06/02 A3035 RMK A01 T00610018  RH  074%=      5-min Rain = 0
KSW1 070301Z 06009KT 06/02 A3035 RMK A01 T00610018  RH  074%=      5-min Rain = 0
KSW1 070302Z 06009KT 06/02 A3035 RMK A01 T00610018  RH  074%=      5-min Rain = 0
KSW1 070303Z 06009KT 06/02 A3035 RMK A01 T00610018  RH  074%=      5-min Rain = 0
KSW1 070304Z 06009KT 06/02 A3035 RMK A01 T00610019  RH  074%=      5-min Rain = 0
KSW1 070305Z 06009KT 06/02 A3034 RMK A01 T00610019  RH  074%=      5-min Rain = 0
KSW1 070306Z 06009KT 06/02 A3034 RMK A01 T00600019  RH  074%=      5-min Rain = 0
KSW1 070307Z 06009KT 06/02 A3034 RMK A01 T00600019  RH  075%=      5-min Rain = 0
KSW1 070308Z 06009KT 06/02 A3034 RMK A01 T00600019  RH  075%=      5-min Rain = 0
KSW1 070309Z 05009KT 06/02 A3034 RMK A01 T00600019  RH  075%=      5-min Rain = 0
KSW1 070310Z 06010KT 06/02 A3034 RMK A01 T00600018  RH  075%=      5-min Rain = 0
KSW1 070311Z 06009KT 06/02 A3034 RMK A01 T00610018  RH  074%=      5-min Rain = 0
KSW1 070312Z 06009KT 06/02 A3034 RMK A01 T00610019  RH  074%=      5-min Rain = 0
KSW1 070313Z 06009KT 06/02 A3034 RMK A01 T00610019  RH  074%=      5-min Rain = 0
KSW1 070314Z 06009KT 06/02 A3034 RMK A01 T00610019  RH  074%=      5-min Rain = 0
KSW1 070315Z 06009KT 06/02 A3034 RMK A01 T00610018  RH  074%=      5-min Rain = 0
KSW1 070316Z 06009KT 06/02 A3034 RMK A01 T00610018  RH  074%=      5-min Rain = 0
KSW1 070317Z 06009KT 06/02 A3034 RMK A01 T00610018  RH  074%=      5-min Rain = 0
KSW1 070318Z 06009KT 06/02 A3034 RMK A01 T00610018  RH  074%=      5-min Rain = 0
KSW1 070319Z 06009KT 06/02 A3034 RMK A01 T00610018  RH  074%=      5-min Rain = 0
KSW1 070320Z 06009KT 06/02 A3034 RMK A01 T00610018  RH  074%=      5-min Rain = 0
KSW1 070321Z 05009KT 06/02 A3034 RMK A01 T00610018  RH  074%=      5-min Rain = 0
KSW1 070322Z 06009KT 06/02 A3034 RMK A01 T00610018  RH  074%=      5-min Rain = 0
KSW1 070323Z 06009KT 06/02 A3034 RMK A01 T00600018  RH  074%=      5-min Rain = 0
KSW1 070324Z 06009KT 06/02 A3034 RMK A01 T00600018  RH  074%=      5-min Rain = 0
KSW1 070325Z 06008KT 06/02 A3034 RMK A01 T00600018  RH  075%=      5-min Rain = 0
KSW1 070326Z 06009KT 06/02 A3034 RMK A01 T00590018  RH  075%=      5-min Rain = 0
KSW1 070327Z 06009KT 06/02 A3034 RMK A01 T00590018  RH  075%=      5-min Rain = 0
KSW1 070328Z 06009KT 06/02 A3034 RMK A01 T00590018  RH  075%=      5-min Rain = 0
KSW1 070329Z 06009KT 06/02 A3034 RMK A01 T00590018  RH  075%=      5-min Rain = 0
KSW1 070330Z 06009KT 06/02 A3034 RMK A01 T00580018  RH  075%=      5-min Rain = 0
KSW1 070331Z 06009KT 06/02 A3034 RMK A01 T00590018  RH  075%=      5-min Rain = 0
KSW1 070332Z 06008KT 06/02 A3034 RMK A01 T00580018  RH  075%=      5-min Rain = 0
KSW1 070333Z 07009KT 06/02 A3034 RMK A01 T00580018  RH  075%=      5-min Rain = 0
KSW1 070334Z 06008KT 06/02 A3034 RMK A01 T00580018  RH  076%=      5-min Rain = 0
KSW1 070335Z 07008KT 06/02 A3034 RMK A01 T00580018  RH  076%=      5-min Rain = 0
KSW1 070336Z 06009KT 06/02 A3034 RMK A01 T00580018  RH  076%=      5-min Rain = 0
KSW1 070337Z 06008KT 06/02 A3034 RMK A01 T00570018  RH  076%=      5-min Rain = 0
KSW1 070338Z 06008KT 06/02 A3034 RMK A01 T00580018  RH  076%=      5-min Rain = 0
KSW1 070339Z 06008KT 06/02 A3034 RMK A01 T00570018  RH  076%=      5-min Rain = 0
KSW1 070340Z 06008KT 06/02 A3034 RMK A01 T00570017  RH  076%=      5-min Rain = 0
KSW1 070341Z 06007KT 06/02 A3034 RMK A01 T00570017  RH  076%=      5-min Rain = 0
KSW1 070342Z 07008KT 06/02 A3034 RMK A01 T00560017  RH  076%=      5-min Rain = 0
KSW1 070343Z 07007KT 06/02 A3034 RMK A01 T00550017  RH  076%=      5-min Rain = 0
KSW1 070344Z 07008KT 06/02 A3034 RMK A01 T00550017  RH  076%=      5-min Rain = 0
KSW1 070345Z 07007KT 06/02 A3034 RMK A01 T00550017  RH  077%=      5-min Rain = 0
KSW1 070346Z 07007KT 05/02 A3034 RMK A01 T00540017  RH  077%=      5-min Rain = 0
KSW1 070347Z 07007KT 05/02 A3034 RMK A01 T00540017  RH  077%=      5-min Rain = 0
KSW1 070348Z 07007KT 05/02 A3034 RMK A01 T00540017  RH  077%=      5-min Rain = 0
KSW1 070349Z 07007KT 05/02 A3034 RMK A01 T00540017  RH  077%=      5-min Rain = 0
KSW1 070350Z 07007KT 05/02 A3034 RMK A01 T00540017  RH  077%=      5-min Rain = 0
KSW1 070351Z 07008KT 05/02 A3034 RMK A01 T00540017  RH  077%=      5-min Rain = 0
KSW1 070352Z 07007KT 05/02 A3034 RMK A01 T00540017  RH  077%=      5-min Rain = 0
KSW1 070353Z 07007KT 05/02 A3034 RMK A01 T00540017  RH  077%=      5-min Rain = 0
KSW1 070354Z 07007KT 05/02 A3034 RMK A01 T00540017  RH  077%=      5-min Rain = 0
KSW1 070355Z 07006KT 05/02 A3034 RMK A01 T00540017  RH  077%=      5-min Rain = 0
KSW1 070356Z 07007KT 05/02 A3034 RMK A01 T00540017  RH  077%=      5-min Rain = 0
KSW1 070357Z 07006KT 05/02 A3034 RMK A01 T00530016  RH  077%=      5-min Rain = 0
KSW1 070358Z 07005KT 05/02 A3034 RMK A01 T00520016  RH  078%=      5-min Rain = 0
KSW1 070359Z 07006KT 05/02 A3034 RMK A01 T00510016  RH  078%=      5-min Rain = 0
KSW1 070400Z 07006KT 05/02 A3034 RMK A01 T00510016  RH  078%=      5-min Rain = 0
KSW1 070401Z 07006KT 05/02 A3034 RMK A01 T00510017  RH  078%=      5-min Rain = 0
KSW1 070402Z 08006KT 05/02 A3034 RMK A01 T00510017  RH  078%=      5-min Rain = 0
KSW1 070403Z 08006KT 05/02 A3034 RMK A01 T00510017  RH  078%=      5-min Rain = 0
KSW1 070404Z 08006KT 05/02 A3034 RMK A01 T00510017  RH  078%=      5-min Rain = 0
KSW1 070405Z 08006KT 05/02 A3034 RMK A01 T00510016  RH  078%=      5-min Rain = 0
KSW1 070406Z 08005KT 05/02 A3034 RMK A01 T00500016  RH  078%=      5-min Rain = 0
KSW1 070407Z 07005KT 05/02 A3034 RMK A01 T00500016  RH  079%=      5-min Rain = 0
KSW1 070408Z 08005KT 05/02 A3034 RMK A01 T00490016  RH  079%=      5-min Rain = 0
KSW1 070409Z 08005KT 05/02 A3034 RMK A01 T00490016  RH  079%=      5-min Rain = 0
KSW1 070410Z 08004KT 05/02 A3034 RMK A01 T00490016  RH  079%=      5-min Rain = 0
KSW1 070411Z 08004KT 05/02 A3034 RMK A01 T00490015  RH  079%=      5-min Rain = 0
KSW1 070412Z 09003KT 05/02 A3034 RMK A01 T00490015  RH  079%=      5-min Rain = 0
KSW1 070413Z 10002KT 05/02 A3034 RMK A01 T00480015  RH  079%=      5-min Rain = 0
KSW1 070414Z 12001KT 05/02 A3034 RMK A01 T00470015  RH  079%=      5-min Rain = 0
KSW1 070415Z 13002KT 05/01 A3034 RMK A01 T00460014  RH  080%=      5-min Rain = 0
KSW1 070416Z 13002KT 05/01 A3034 RMK A01 T00460014  RH  080%=      5-min Rain = 0
KSW1 070417Z 13001KT 05/01 A3034 RMK A01 T00450014  RH  080%=      5-min Rain = 0
KSW1 070418Z 12002KT 05/02 A3034 RMK A01 T00450015  RH  081%=      5-min Rain = 0
KSW1 070419Z 14001KT 05/02 A3034 RMK A01 T00450015  RH  081%=      5-min Rain = 0
KSW1 070420Z 12002KT 05/02 A3034 RMK A01 T00450015  RH  080%=      5-min Rain = 0
KSW1 070421Z 11001KT 05/02 A3034 RMK A01 T00460015  RH  080%=      5-min Rain = 0
KSW1 070422Z 12001KT 05/02 A3034 RMK A01 T00460015  RH  080%=      5-min Rain = 0
KSW1 070423Z 10003KT 05/02 A3034 RMK A01 T00470015  RH  080%=      5-min Rain = 0
KSW1 070424Z 11003KT 05/02 A3035 RMK A01 T00480016  RH  080%=      5-min Rain = 0
KSW1 070425Z 09004KT 05/02 A3035 RMK A01 T00500017  RH  079%=      5-min Rain = 0
KSW1 070426Z 10004KT 05/02 A3035 RMK A01 T00510016  RH  078%=      5-min Rain = 0
KSW1 070427Z 11003KT 05/02 A3035 RMK A01 T00530017  RH  078%=      5-min Rain = 0
KSW1 070428Z 09003KT 06/02 A3035 RMK A01 T00550017  RH  077%=      5-min Rain = 0
KSW1 070429Z 10004KT 06/02 A3035 RMK A01 T00550017  RH  076%=      5-min Rain = 0
KSW1 070430Z 09005KT 06/02 A3035 RMK A01 T00550016  RH  076%=      5-min Rain = 0
KSW1 070431Z 09006KT 06/02 A3035 RMK A01 T00550015  RH  076%=      5-min Rain = 0
KSW1 070432Z 08006KT 06/02 A3035 RMK A01 T00560017  RH  076%=      5-min Rain = 0
KSW1 070433Z 08005KT 06/02 A3035 RMK A01 T00580017  RH  075%=      5-min Rain = 0
KSW1 070434Z 08005KT 06/02 A3035 RMK A01 T00590017  RH  074%=      5-min Rain = 0
KSW1 070435Z 08005KT 06/02 A3034 RMK A01 T00570015  RH  074%=      5-min Rain = 0
KSW1 070436Z 08005KT 05/01 A3034 RMK A01 T00540014  RH  075%=      5-min Rain = 0
KSW1 070437Z 08005KT 05/02 A3034 RMK A01 T00530015  RH  076%=      5-min Rain = 0
KSW1 070438Z 08005KT 05/02 A3034 RMK A01 T00530015  RH  077%=      5-min Rain = 0
KSW1 070439Z 08005KT 05/02 A3034 RMK A01 T00520015  RH  077%=      5-min Rain = 0
KSW1 070440Z 08005KT 05/01 A3034 RMK A01 T00500014  RH  078%=      5-min Rain = 0
KSW1 070441Z 08005KT 05/01 A3034 RMK A01 T00490014  RH  078%=      5-min Rain = 0
KSW1 070442Z 07005KT 05/01 A3034 RMK A01 T00490014  RH  078%=      5-min Rain = 0
KSW1 070443Z 07005KT 05/02 A3034 RMK A01 T00490015  RH  079%=      5-min Rain = 0
KSW1 070444Z 07005KT 05/02 A3034 RMK A01 T00490015  RH  079%=      5-min Rain = 0
KSW1 070445Z 07005KT 05/01 A3034 RMK A01 T00490014  RH  078%=      5-min Rain = 0
KSW1 070446Z 07004KT 05/02 A3034 RMK A01 T00490015  RH  078%=      5-min Rain = 0
KSW1 070447Z 07004KT 05/01 A3034 RMK A01 T00480014  RH  079%=      5-min Rain = 0
KSW1 070448Z 07005KT 05/01 A3034 RMK A01 T00470014  RH  079%=      5-min Rain = 0
KSW1 070449Z 07005KT 05/01 A3034 RMK A01 T00470014  RH  079%=      5-min Rain = 0
KSW1 070450Z 07005KT 05/01 A3034 RMK A01 T00470014  RH  079%=      5-min Rain = 0
KSW1 070451Z 08004KT 05/01 A3035 RMK A01 T00480014  RH  079%=      5-min Rain = 0
KSW1 070452Z 08004KT 05/01 A3035 RMK A01 T00480014  RH  079%=      5-min Rain = 0
KSW1 070453Z 08004KT 05/01 A3035 RMK A01 T00480014  RH  079%=      5-min Rain = 0
KSW1 070454Z 08003KT 05/01 A3035 RMK A01 T00480014  RH  079%=      5-min Rain = 0
KSW1 070455Z 10003KT 05/01 A3035 RMK A01 T00480014  RH  078%=      5-min Rain = 0
KSW1 070456Z 10003KT 05/02 A3035 RMK A01 T00490015  RH  079%=      5-min Rain = 0
KSW1 070457Z 10003KT 05/02 A3035 RMK A01 T00500015  RH  078%=      5-min Rain = 0
KSW1 070458Z 11003KT 05/02 A3035 RMK A01 T00500015  RH  078%=      5-min Rain = 0
KSW1 070459Z 10004KT 05/02 A3035 RMK A01 T00510015  RH  078%=      5-min Rain = 0
KSW1 070500Z 10004KT 05/02 A3035 RMK A01 T00510015  RH  078%=      5-min Rain = 0
KSW1 070501Z 09006KT 05/02 A3035 RMK A01 T00520016  RH  077%=      5-min Rain = 0
KSW1 070502Z 10005KT 06/02 A3035 RMK A01 T00550017  RH  077%=      5-min Rain = 0
KSW1 070503Z 08006KT 06/02 A3035 RMK A01 T00590018  RH  075%=      5-min Rain = 0
KSW1 070504Z 09005KT 06/02 A3035 RMK A01 T00620018  RH  073%=      5-min Rain = 0
KSW1 070505Z 09005KT 06/02 A3034 RMK A01 T00640018  RH  072%=      5-min Rain = 0
KSW1 070506Z 09006KT 07/02 A3034 RMK A01 T00650017  RH  072%=      5-min Rain = 0
KSW1 070507Z 08008KT 07/02 A3034 RMK A01 T00650017  RH  071%=      5-min Rain = 0
KSW1 070508Z 08007KT 07/02 A3034 RMK A01 T00670018  RH  070%=      5-min Rain = 0
KSW1 070509Z 08008KT 07/02 A3034 RMK A01 T00660017  RH  071%=      5-min Rain = 0
KSW1 070510Z 08006KT 07/02 A3034 RMK A01 T00650017  RH  071%=      5-min Rain = 0
KSW1 070511Z 08007KT 06/02 A3034 RMK A01 T00630016  RH  072%=      5-min Rain = 0
KSW1 070512Z 08006KT 06/02 A3034 RMK A01 T00630016  RH  072%=      5-min Rain = 0
KSW1 070513Z 08006KT 06/02 A3034 RMK A01 T00630016  RH  072%=      5-min Rain = 0
KSW1 070514Z 08006KT 06/02 A3034 RMK A01 T00620016  RH  072%=      5-min Rain = 0
KSW1 070515Z 07006KT 06/02 A3034 RMK A01 T00610016  RH  073%=      5-min Rain = 0
KSW1 070516Z 07006KT 06/02 A3035 RMK A01 T00590015  RH  073%=      5-min Rain = 0
KSW1 070517Z 07006KT 06/01 A3034 RMK A01 T00560014  RH  074%=      5-min Rain = 0
KSW1 070518Z 07006KT 06/01 A3034 RMK A01 T00550014  RH  075%=      5-min Rain = 0
KSW1 070519Z 07006KT 06/02 A3034 RMK A01 T00550015  RH  075%=      5-min Rain = 0
KSW1 070520Z 07006KT 06/02 A3034 RMK A01 T00560015  RH  075%=      5-min Rain = 0
KSW1 070521Z 07006KT 06/02 A3034 RMK A01 T00560015  RH  075%=      5-min Rain = 0
KSW1 070522Z 07007KT 06/02 A3034 RMK A01 T00560015  RH  075%=      5-min Rain = 0
KSW1 070523Z 07006KT 06/02 A3034 RMK A01 T00560016  RH  075%=      5-min Rain = 0
KSW1 070524Z 07005KT 06/02 A3034 RMK A01 T00580017  RH  075%=      5-min Rain = 0
KSW1 070525Z 08005KT 06/02 A3034 RMK A01 T00590016  RH  074%=      5-min Rain = 0
KSW1 070526Z 07005KT 06/02 A3034 RMK A01 T00590016  RH  074%=      5-min Rain = 0
KSW1 070527Z 07005KT 06/02 A3034 RMK A01 T00590016  RH  074%=      5-min Rain = 0
KSW1 070528Z 07005KT 06/02 A3034 RMK A01 T00590015  RH  074%=      5-min Rain = 0
KSW1 070529Z 07005KT 06/02 A3034 RMK A01 T00590015  RH  073%=      5-min Rain = 0
KSW1 070530Z 07005KT 06/02 A3034 RMK A01 T00590015  RH  074%=      5-min Rain = 0
KSW1 070531Z 07005KT 06/01 A3034 RMK A01 T00570014  RH  074%=      5-min Rain = 0
KSW1 070532Z 07005KT 06/01 A3034 RMK A01 T00560014  RH  074%=      5-min Rain = 0
KSW1 070533Z 08004KT 05/01 A3034 RMK A01 T00540014  RH  075%=      5-min Rain = 0
KSW1 070534Z 08005KT 05/01 A3034 RMK A01 T00530014  RH  076%=      5-min Rain = 0
KSW1 070535Z 08004KT 05/01 A3034 RMK A01 T00520014  RH  076%=      5-min Rain = 0
KSW1 070536Z 08005KT 05/01 A3034 RMK A01 T00510013  RH  076%=      5-min Rain = 0
KSW1 070537Z 08005KT 05/01 A3034 RMK A01 T00490012  RH  077%=      5-min Rain = 0
KSW1 070538Z 07006KT 05/01 A3034 RMK A01 T00480012  RH  077%=      5-min Rain = 0
KSW1 070539Z 07006KT 05/01 A3034 RMK A01 T00470012  RH  078%=      5-min Rain = 0
KSW1 070540Z 07006KT 05/01 A3034 RMK A01 T00470012  RH  078%=      5-min Rain = 0
KSW1 070541Z 07005KT 05/01 A3034 RMK A01 T00460012  RH  079%=      5-min Rain = 0
KSW1 070542Z 07005KT 05/01 A3034 RMK A01 T00460013  RH  079%=      5-min Rain = 0
KSW1 070543Z 08005KT 05/01 A3034 RMK A01 T00480014  RH  078%=      5-min Rain = 0
KSW1 070544Z 08005KT 05/01 A3034 RMK A01 T00490014  RH  078%=      5-min Rain = 0
KSW1 070545Z 08005KT 05/01 A3034 RMK A01 T00490014  RH  078%=      5-min Rain = 0
KSW1 070546Z 08005KT 05/01 A3034 RMK A01 T00500014  RH  078%=      5-min Rain = 0
KSW1 070547Z 08004KT 05/01 A3034 RMK A01 T00500014  RH  078%=      5-min Rain = 0
KSW1 070548Z 08004KT 05/01 A3034 RMK A01 T00490014  RH  078%=      5-min Rain = 0
KSW1 070549Z 08005KT 05/01 A3034 RMK A01 T00490014  RH  078%=      5-min Rain = 0
KSW1 070550Z 08004KT 05/01 A3034 RMK A01 T00500014  RH  078%=      5-min Rain = 0
KSW1 070551Z 08004KT 05/01 A3034 RMK A01 T00500014  RH  077%=      5-min Rain = 0
KSW1 070552Z 08004KT 05/01 A3034 RMK A01 T00510014  RH  077%=      5-min Rain = 0
KSW1 070553Z 08005KT 05/01 A3034 RMK A01 T00510014  RH  077%=      5-min Rain = 0
KSW1 070554Z 08006KT 05/01 A3034 RMK A01 T00500013  RH  077%=      5-min Rain = 0
KSW1 070555Z 08006KT 05/01 A3034 RMK A01 T00490013  RH  078%=      5-min Rain = 0
KSW1 070556Z 08006KT 05/01 A3034 RMK A01 T00480013  RH  078%=      5-min Rain = 0
KSW1 070557Z 08005KT 05/02 A3034 RMK A01 T00490015  RH  078%=      5-min Rain = 0
KSW1 070558Z 08006KT 05/02 A3034 RMK A01 T00510016  RH  078%=      5-min Rain = 0
KSW1 070559Z 08005KT 05/02 A3034 RMK A01 T00530016  RH  077%=      5-min Rain = 0

Page generated in 0.0699 seconds.